Time,TemperatureF,DewpointF,PressureIn,WindDirection,WindDirectionDegrees,WindSpeedMPH,WindSpeedGustMPH,Humidity,HourlyPrecipIn,Conditions,Clouds,dailyrainin,SoftwareType,DateUTC
2013-02-23 00:01:00,27.6,21.0,30.40,WSW,257,0.0,0.0,76,0.00,,,0.00,Wunderground v.1.15,2013-02-23 05:01:00,
2013-02-23 00:02:00,27.7,21.1,30.40,WSW,257,0.0,0.0,76,0.00,,,0.00,Wunderground v.1.15,2013-02-23 05:02:00,
2013-02-23 00:07:00,27.7,21.1,30.39,WSW,257,0.0,1.0,76,0.00,,,0.00,Wunderground v.1.15,2013-02-23 05:07:00,
2013-02-23 00:11:00,27.7,21.1,30.39,WSW,249,2.0,2.0,76,0.00,,,0.00,Wunderground v.1.15,2013-02-23 05:11:00,
2013-02-23 00:12:00,27.7,21.1,30.39,WSW,250,0.0,2.0,76,0.00,,,0.00,Wunderground v.1.15,2013-02-23 05:12:00,
2013-02-23 00:16:00,27.7,21.1,30.39,WSW,249,0.0,2.0,76,0.00,,,0.00,Wunderground v.1.15,2013-02-23 05:16:00,
2013-02-23 00:17:00,27.6,21.0,30.39,WSW,250,0.0,2.0,76,0.00,,,0.00,Wunderground v.1.15,2013-02-23 05:17:00,
2013-02-23 00:22:00,27.5,20.9,30.39,SW,235,1.0,1.0,76,0.00,,,0.00,Wunderground v.1.15,2013-02-23 05:22:00,
2013-02-23 00:28:00,27.7,20.8,30.39,West,267,1.0,2.0,75,0.00,,,0.00,Wunderground v.1.15,2013-02-23 05:28:00,
2013-02-23 00:32:00,27.7,20.8,30.39,West,267,1.0,1.0,75,0.00,,,0.00,Wunderground v.1.15,2013-02-23 05:32:00,
2013-02-23 00:33:00,27.7,20.5,30.39,West,266,0.0,1.0,74,0.00,,,0.00,Wunderground v.1.15,2013-02-23 05:33:00,
2013-02-23 00:34:00,27.7,20.5,30.39,West,267,1.0,1.0,74,0.00,,,0.00,Wunderground v.1.15,2013-02-23 05:34:00,
2013-02-23 00:38:00,27.7,20.5,30.39,WSW,252,0.0,1.0,74,0.00,,,0.00,Wunderground v.1.15,2013-02-23 05:38:00,
2013-02-23 00:40:00,27.7,20.5,30.38,WSW,252,0.0,0.0,74,0.00,,,0.00,Wunderground v.1.15,2013-02-23 05:40:00,
2013-02-23 00:44:00,27.7,20.5,30.38,WSW,251,0.0,0.0,74,0.00,,,0.00,Wunderground v.1.15,2013-02-23 05:44:00,
2013-02-23 00:46:00,27.7,20.8,30.38,WSW,252,0.0,0.0,75,0.00,,,0.00,Wunderground v.1.15,2013-02-23 05:46:00,
2013-02-23 00:47:00,27.7,20.8,30.38,WSW,252,0.0,0.0,75,0.00,,,0.00,Wunderground v.1.15,2013-02-23 05:47:00,
2013-02-23 00:51:00,27.6,20.7,30.37,WSW,252,0.0,1.0,75,0.00,,,0.00,Wunderground v.1.15,2013-02-23 05:51:00,
2013-02-23 00:54:00,27.6,20.7,30.37,WSW,252,0.0,1.0,75,0.00,,,0.00,Wunderground v.1.15,2013-02-23 05:54:00,
2013-02-23 00:55:00,27.6,20.7,30.38,WSW,252,0.0,1.0,75,0.00,,,0.00,Wunderground v.1.15,2013-02-23 05:55:00,
2013-02-23 00:58:00,27.6,20.4,30.38,West,274,0.0,2.0,74,0.00,,,0.00,Wunderground v.1.15,2013-02-23 05:58:00,
2013-02-23 01:01:00,27.7,20.5,30.38,West,274,0.0,0.0,74,0.00,,,0.00,Wunderground v.1.15,2013-02-23 06:01:00,
2013-02-23 01:02:00,27.7,20.5,30.38,West,274,0.0,0.0,74,0.00,,,0.00,Wunderground v.1.15,2013-02-23 06:02:00,
2013-02-23 01:03:00,27.7,20.5,30.37,West,274,0.0,0.0,74,0.00,,,0.00,Wunderground v.1.15,2013-02-23 06:03:00,
2013-02-23 01:07:00,27.7,20.5,30.38,West,264,1.0,1.0,74,0.00,,,0.00,Wunderground v.1.15,2013-02-23 06:07:00,
2013-02-23 01:08:00,27.7,20.8,30.38,West,264,0.0,1.0,75,0.00,,,0.00,Wunderground v.1.15,2013-02-23 06:08:00,
2013-02-23 01:12:00,27.8,20.6,30.38,WSW,238,1.0,1.0,74,0.00,,,0.00,Wunderground v.1.15,2013-02-23 06:12:00,
2013-02-23 01:14:00,27.8,20.6,30.38,WSW,238,0.0,1.0,74,0.00,,,0.00,Wunderground v.1.15,2013-02-23 06:14:00,
2013-02-23 01:15:00,27.8,20.6,30.38,WSW,238,0.0,1.0,74,0.00,,,0.00,Wunderground v.1.15,2013-02-23 06:15:00,
2013-02-23 01:19:00,27.8,20.6,30.38,WSW,243,0.0,1.0,74,0.00,,,0.00,Wunderground v.1.15,2013-02-23 06:19:00,
2013-02-23 01:20:00,27.8,20.6,30.38,WSW,242,0.0,1.0,74,0.00,,,0.00,Wunderground v.1.15,2013-02-23 06:20:00,
2013-02-23 01:21:00,27.8,20.6,30.38,WSW,242,0.0,0.0,74,0.00,,,0.00,Wunderground v.1.15,2013-02-23 06:21:00,
2013-02-23 01:23:00,27.8,20.9,30.37,WSW,242,0.0,1.0,75,0.00,,,0.00,Wunderground v.1.15,2013-02-23 06:23:00,
2013-02-23 01:27:00,27.8,20.6,30.37,WSW,242,0.0,1.0,74,0.00,,,0.00,Wunderground v.1.15,2013-02-23 06:27:00,
2013-02-23 01:29:00,27.8,20.9,30.37,WSW,243,0.0,1.0,75,0.00,,,0.00,Wunderground v.1.15,2013-02-23 06:29:00,
2013-02-23 01:34:00,27.8,20.9,30.37,WSW,242,0.0,0.0,75,0.00,,,0.00,Wunderground v.1.15,2013-02-23 06:34:00,
2013-02-23 01:36:00,27.8,20.9,30.38,WSW,242,0.0,0.0,75,0.00,,,0.00,Wunderground v.1.15,2013-02-23 06:36:00,
2013-02-23 01:38:00,27.8,20.9,30.38,WSW,242,0.0,0.0,75,0.00,,,0.00,Wunderground v.1.15,2013-02-23 06:38:00,
2013-02-23 01:42:00,27.9,21.0,30.37,WSW,242,0.0,0.0,75,0.00,,,0.00,Wunderground v.1.15,2013-02-23 06:42:00,
2013-02-23 01:43:00,27.9,21.3,30.37,WSW,242,0.0,0.0,76,0.00,,,0.00,Wunderground v.1.15,2013-02-23 06:43:00,
2013-02-23 01:44:00,27.9,21.3,30.37,WSW,242,0.0,0.0,76,0.00,,,0.00,Wunderground v.1.15,2013-02-23 06:44:00,
2013-02-23 01:49:00,27.9,21.6,30.37,WSW,243,0.0,0.0,77,0.00,,,0.00,Wunderground v.1.15,2013-02-23 06:49:00,
2013-02-23 01:50:00,27.9,21.6,30.37,WSW,242,0.0,0.0,77,0.00,,,0.00,Wunderground v.1.15,2013-02-23 06:50:00,
2013-02-23 01:51:00,27.9,21.6,30.37,ESE,120,1.0,1.0,77,0.00,,,0.00,Wunderground v.1.15,2013-02-23 06:51:00,
2013-02-23 01:55:00,27.9,21.6,30.37,ESE,102,1.0,1.0,77,0.00,,,0.00,Wunderground v.1.15,2013-02-23 06:55:00,
2013-02-23 01:57:00,27.9,21.9,30.36,ESE,120,1.0,1.0,78,0.00,,,0.00,Wunderground v.1.15,2013-02-23 06:57:00,
2013-02-23 01:58:00,27.9,21.9,30.36,ESE,120,0.0,1.0,78,0.00,,,0.00,Wunderground v.1.15,2013-02-23 06:58:00,
2013-02-23 02:02:00,27.9,21.6,30.36,ESE,120,0.0,0.0,77,0.00,,,0.00,Wunderground v.1.15,2013-02-23 07:02:00,
2013-02-23 02:03:00,27.9,21.9,30.36,ESE,120,0.0,0.0,78,0.00,,,0.00,Wunderground v.1.15,2013-02-23 07:03:00,
2013-02-23 02:07:00,27.9,21.9,30.36,ESE,120,0.0,0.0,78,0.00,,,0.00,Wunderground v.1.15,2013-02-23 07:07:00,
2013-02-23 02:08:00,27.9,21.9,30.36,SW,231,3.0,3.0,78,0.00,,,0.00,Wunderground v.1.15,2013-02-23 07:08:00,
2013-02-23 02:12:00,27.9,21.9,30.36,WSW,239,0.0,0.0,78,0.00,,,0.00,Wunderground v.1.15,2013-02-23 07:12:00,
2013-02-23 02:13:00,27.8,21.8,30.36,WSW,239,0.0,0.0,78,0.00,,,0.00,Wunderground v.1.15,2013-02-23 07:13:00,
2013-02-23 02:17:00,27.9,22.2,30.36,WSW,239,0.0,1.0,79,0.00,,,0.00,Wunderground v.1.15,2013-02-23 07:17:00,
2013-02-23 02:18:00,27.9,22.2,30.36,WSW,239,0.0,1.0,79,0.00,,,0.00,Wunderground v.1.15,2013-02-23 07:18:00,
2013-02-23 02:22:00,27.8,22.1,30.36,WSW,239,0.0,1.0,79,0.00,,,0.00,Wunderground v.1.15,2013-02-23 07:22:00,
2013-02-23 02:23:00,27.9,22.2,30.36,WSW,239,0.0,1.0,79,0.00,,,0.00,Wunderground v.1.15,2013-02-23 07:23:00,
2013-02-23 02:24:00,27.9,22.2,30.36,WSW,257,1.0,1.0,79,0.00,,,0.00,Wunderground v.1.15,2013-02-23 07:24:00,
2013-02-23 02:27:00,27.8,22.1,30.36,West,260,0.0,1.0,79,0.00,,,0.00,Wunderground v.1.15,2013-02-23 07:27:00,
2013-02-23 02:28:00,27.8,22.1,30.36,West,260,0.0,1.0,79,0.00,,,0.00,Wunderground v.1.15,2013-02-23 07:28:00,
2013-02-23 02:29:00,27.8,22.1,30.36,West,260,0.0,1.0,79,0.00,,,0.00,Wunderground v.1.15,2013-02-23 07:29:00,
2013-02-23 02:32:00,27.8,22.1,30.36,West,260,0.0,0.0,79,0.00,,,0.00,Wunderground v.1.15,2013-02-23 07:32:00,
2013-02-23 02:33:00,27.8,22.1,30.36,West,261,0.0,0.0,79,0.00,,,0.00,Wunderground v.1.15,2013-02-23 07:33:00,
2013-02-23 02:34:00,27.8,22.1,30.36,West,260,0.0,0.0,79,0.00,,,0.00,Wunderground v.1.15,2013-02-23 07:34:00,
2013-02-23 02:37:00,27.8,22.1,30.36,West,260,0.0,0.0,79,0.00,,,0.00,Wunderground v.1.15,2013-02-23 07:37:00,
2013-02-23 02:38:00,27.7,22.0,30.36,West,259,0.0,1.0,79,0.00,,,0.00,Wunderground v.1.15,2013-02-23 07:38:00,
2013-02-23 02:39:00,27.8,22.1,30.36,West,259,0.0,1.0,79,0.00,,,0.00,Wunderground v.1.15,2013-02-23 07:39:00,
2013-02-23 02:42:00,27.7,22.3,30.36,WSW,238,1.0,1.0,80,0.00,,,0.00,Wunderground v.1.15,2013-02-23 07:42:00,
2013-02-23 02:43:00,27.7,22.3,30.36,WSW,238,0.0,1.0,80,0.00,,,0.00,Wunderground v.1.15,2013-02-23 07:43:00,
2013-02-23 02:44:00,27.7,22.0,30.36,WSW,238,0.0,1.0,79,0.00,,,0.00,Wunderground v.1.15,2013-02-23 07:44:00,
2013-02-23 02:48:00,27.7,22.3,30.36,WSW,238,0.0,1.0,80,0.00,,,0.00,Wunderground v.1.15,2013-02-23 07:48:00,
2013-02-23 02:49:00,27.7,22.3,30.36,WSW,250,0.0,1.0,80,0.00,,,0.00,Wunderground v.1.15,2013-02-23 07:49:00,
2013-02-23 02:53:00,27.7,22.3,30.36,SW,224,0.0,1.0,80,0.00,,,0.00,Wunderground v.1.15,2013-02-23 07:53:00,
2013-02-23 02:54:00,27.7,22.3,30.36,SW,224,0.0,1.0,80,0.00,,,0.00,Wunderground v.1.15,2013-02-23 07:54:00,
2013-02-23 02:58:00,27.7,22.3,30.35,East,97,0.0,1.0,80,0.00,,,0.00,Wunderground v.1.15,2013-02-23 07:58:00,
2013-02-23 02:59:00,27.7,22.3,30.35,SE,146,0.0,1.0,80,0.00,,,0.00,Wunderground v.1.15,2013-02-23 07:59:00,
2013-02-23 03:03:00,27.7,22.3,30.35,SSW,200,0.0,1.0,80,0.00,,,0.00,Wunderground v.1.15,2013-02-23 08:03:00,
2013-02-23 03:04:00,27.7,22.3,30.35,SSW,200,0.0,1.0,80,0.00,,,0.00,Wunderground v.1.15,2013-02-23 08:04:00,
2013-02-23 03:08:00,27.7,22.3,30.35,SSW,201,0.0,1.0,80,0.00,,,0.00,Wunderground v.1.15,2013-02-23 08:08:00,
2013-02-23 03:09:00,27.7,22.3,30.35,SSW,201,0.0,1.0,80,0.00,,,0.00,Wunderground v.1.15,2013-02-23 08:09:00,
2013-02-23 03:14:00,27.7,22.3,30.35,SW,232,0.0,1.0,80,0.00,,,0.00,Wunderground v.1.15,2013-02-23 08:14:00,
2013-02-23 03:15:00,27.7,22.3,30.35,SW,229,0.0,1.0,80,0.00,,,0.00,Wunderground v.1.15,2013-02-23 08:15:00,
2013-02-23 03:19:00,27.7,22.0,30.35,WSW,248,0.0,1.0,79,0.00,,,0.00,Wunderground v.1.15,2013-02-23 08:19:00,
2013-02-23 03:20:00,27.7,22.0,30.35,WSW,246,0.0,1.0,79,0.00,,,0.00,Wunderground v.1.15,2013-02-23 08:20:00,
2013-02-23 03:24:00,27.7,22.3,30.35,SE,139,0.0,2.0,80,0.00,,,0.00,Wunderground v.1.15,2013-02-23 08:24:00,
2013-02-23 03:25:00,27.7,22.0,30.35,SE,140,0.0,2.0,79,0.00,,,0.00,Wunderground v.1.15,2013-02-23 08:25:00,
2013-02-23 03:29:00,27.7,22.0,30.35,SE,139,0.0,2.0,79,0.00,,,0.00,Wunderground v.1.15,2013-02-23 08:29:00,
2013-02-23 03:30:00,27.7,22.0,30.35,SE,129,0.0,0.0,79,0.00,,,0.00,Wunderground v.1.15,2013-02-23 08:30:00,
2013-02-23 03:34:00,27.7,22.3,30.34,SE,129,0.0,0.0,80,0.00,,,0.00,Wunderground v.1.15,2013-02-23 08:34:00,
2013-02-23 03:35:00,27.7,22.3,30.34,SE,138,0.0,1.0,80,0.00,,,0.00,Wunderground v.1.15,2013-02-23 08:35:00,
2013-02-23 03:39:00,27.7,22.3,30.34,SE,138,0.0,1.0,80,0.00,,,0.00,Wunderground v.1.15,2013-02-23 08:39:00,
2013-02-23 03:40:00,27.7,22.3,30.34,SE,138,0.0,0.0,80,0.00,,,0.00,Wunderground v.1.15,2013-02-23 08:40:00,
2013-02-23 03:41:00,27.7,22.3,30.34,SE,138,0.0,0.0,80,0.00,,,0.00,Wunderground v.1.15,2013-02-23 08:41:00,
2013-02-23 03:44:00,27.6,21.9,30.34,South,188,0.0,1.0,79,0.00,,,0.00,Wunderground v.1.15,2013-02-23 08:44:00,
2013-02-23 03:45:00,27.6,21.9,30.34,South,188,0.0,1.0,79,0.00,,,0.00,Wunderground v.1.15,2013-02-23 08:45:00,
2013-02-23 03:46:00,27.6,21.9,30.34,South,188,0.0,1.0,79,0.00,,,0.00,Wunderground v.1.15,2013-02-23 08:46:00,
2013-02-23 03:49:00,27.6,22.5,30.33,South,188,0.0,1.0,81,0.00,,,0.00,Wunderground v.1.15,2013-02-23 08:49:00,
2013-02-23 03:50:00,27.6,22.5,30.33,South,188,0.0,0.0,81,0.00,,,0.00,Wunderground v.1.15,2013-02-23 08:50:00,
2013-02-23 03:51:00,27.6,22.2,30.33,South,188,0.0,0.0,80,0.00,,,0.00,Wunderground v.1.15,2013-02-23 08:51:00,
2013-02-23 03:55:00,27.6,21.9,30.33,East,97,0.0,1.0,79,0.00,,,0.00,Wunderground v.1.15,2013-02-23 08:55:00,
2013-02-23 03:56:00,27.6,21.9,30.33,East,97,0.0,1.0,79,0.00,,,0.00,Wunderground v.1.15,2013-02-23 08:56:00,
2013-02-23 04:01:00,27.6,21.9,30.33,South,188,0.0,1.0,79,0.00,,,0.00,Wunderground v.1.15,2013-02-23 09:01:00,
2013-02-23 04:06:00,27.6,21.9,30.33,SE,129,1.0,2.0,79,0.00,,,0.00,Wunderground v.1.15,2013-02-23 09:06:00,
2013-02-23 04:07:00,27.6,21.9,30.33,SE,130,0.0,2.0,79,0.00,,,0.00,Wunderground v.1.15,2013-02-23 09:07:00,
2013-02-23 04:11:00,27.7,21.7,30.33,ESE,103,1.0,1.0,78,0.00,,,0.00,Wunderground v.1.15,2013-02-23 09:11:00,
2013-02-23 04:12:00,27.7,21.7,30.33,East,87,2.0,2.0,78,0.00,,,0.00,Wunderground v.1.15,2013-02-23 09:12:00,
2013-02-23 04:13:00,27.7,21.7,30.32,ESE,105,1.0,2.0,78,0.00,,,0.00,Wunderground v.1.15,2013-02-23 09:13:00,
2013-02-23 04:16:00,27.7,21.7,30.32,South,190,1.0,2.0,78,0.00,,,0.00,Wunderground v.1.15,2013-02-23 09:16:00,
2013-02-23 04:17:00,27.7,21.7,30.32,South,190,0.0,2.0,78,0.00,,,0.00,Wunderground v.1.15,2013-02-23 09:17:00,
2013-02-23 04:18:00,27.7,21.7,30.32,South,190,0.0,2.0,78,0.00,,,0.00,Wunderground v.1.15,2013-02-23 09:18:00,
2013-02-23 04:21:00,27.7,21.7,30.32,SW,224,0.0,1.0,78,0.00,,,0.00,Wunderground v.1.15,2013-02-23 09:21:00,
2013-02-23 04:22:00,27.7,21.7,30.33,West,276,2.0,2.0,78,0.00,,,0.00,Wunderground v.1.15,2013-02-23 09:22:00,
2013-02-23 04:23:00,27.7,21.7,30.32,West,276,0.0,2.0,78,0.00,,,0.00,Wunderground v.1.15,2013-02-23 09:23:00,
2013-02-23 04:27:00,27.7,22.0,30.32,West,276,0.0,2.0,79,0.00,,,0.00,Wunderground v.1.15,2013-02-23 09:27:00,
2013-02-23 04:28:00,27.7,22.0,30.32,West,276,0.0,2.0,79,0.00,,,0.00,Wunderground v.1.15,2013-02-23 09:28:00,
2013-02-23 04:32:00,27.7,21.7,30.32,NE,56,2.0,2.0,78,0.00,,,0.00,Wunderground v.1.15,2013-02-23 09:32:00,
2013-02-23 04:33:00,27.7,21.7,30.32,South,172,0.0,2.0,78,0.00,,,0.00,Wunderground v.1.15,2013-02-23 09:33:00,
2013-02-23 04:37:00,27.7,21.7,30.32,West,263,1.0,3.0,78,0.00,,,0.00,Wunderground v.1.15,2013-02-23 09:37:00,
2013-02-23 04:38:00,27.7,21.7,30.32,WSW,252,1.0,3.0,78,0.00,,,0.00,Wunderground v.1.15,2013-02-23 09:38:00,
2013-02-23 04:42:00,27.6,21.6,30.32,ESE,103,2.0,3.0,78,0.00,,,0.00,Wunderground v.1.15,2013-02-23 09:42:00,
2013-02-23 04:43:00,27.6,21.9,30.32,SW,215,0.0,3.0,79,0.00,,,0.00,Wunderground v.1.15,2013-02-23 09:43:00,
2013-02-23 04:47:00,27.6,21.9,30.32,WNW,293,1.0,3.0,79,0.00,,,0.00,Wunderground v.1.15,2013-02-23 09:47:00,
2013-02-23 04:48:00,27.6,21.9,30.32,SSW,211,0.0,3.0,79,0.00,,,0.00,Wunderground v.1.15,2013-02-23 09:48:00,
2013-02-23 04:52:00,27.5,22.1,30.32,South,186,0.0,3.0,80,0.00,,,0.00,Wunderground v.1.15,2013-02-23 09:52:00,
2013-02-23 04:53:00,27.5,22.1,30.32,SSW,212,1.0,3.0,80,0.00,,,0.00,Wunderground v.1.15,2013-02-23 09:53:00,
2013-02-23 04:54:00,27.5,22.1,30.32,SSW,212,0.0,3.0,80,0.00,,,0.00,Wunderground v.1.15,2013-02-23 09:54:00,
2013-02-23 04:57:00,27.5,22.1,30.32,SSW,212,0.0,3.0,80,0.00,,,0.00,Wunderground v.1.15,2013-02-23 09:57:00,
2013-02-23 04:58:00,27.4,22.0,30.32,SSW,211,0.0,3.0,80,0.00,,,0.00,Wunderground v.1.15,2013-02-23 09:58:00,
2013-02-23 04:59:00,27.4,22.0,30.32,SSW,195,1.0,3.0,80,0.00,,,0.00,Wunderground v.1.15,2013-02-23 09:59:00,
2013-02-23 05:02:00,27.4,22.0,30.32,WSW,246,0.0,1.0,80,0.00,,,0.00,Wunderground v.1.15,2013-02-23 10:02:00,
2013-02-23 05:03:00,27.4,22.3,30.32,WSW,246,0.0,1.0,81,0.00,,,0.00,Wunderground v.1.15,2013-02-23 10:03:00,
2013-02-23 05:04:00,27.4,22.3,30.32,WSW,243,0.0,1.0,81,0.00,,,0.00,Wunderground v.1.15,2013-02-23 10:04:00,
2013-02-23 05:07:00,27.3,22.2,30.32,WSW,243,0.0,1.0,81,0.00,,,0.00,Wunderground v.1.15,2013-02-23 10:07:00,
2013-02-23 05:08:00,27.3,22.2,30.32,WSW,255,1.0,1.0,81,0.00,,,0.00,Wunderground v.1.15,2013-02-23 10:08:00,
2013-02-23 05:09:00,27.3,22.2,30.32,WSW,249,0.0,1.0,81,0.00,,,0.00,Wunderground v.1.15,2013-02-23 10:09:00,
2013-02-23 05:13:00,27.3,22.5,30.32,West,269,1.0,2.0,82,0.00,,,0.00,Wunderground v.1.15,2013-02-23 10:13:00,
2013-02-23 05:14:00,27.3,22.5,30.32,West,269,0.0,2.0,82,0.00,,,0.00,Wunderground v.1.15,2013-02-23 10:14:00,
2013-02-23 05:18:00,27.3,22.5,30.32,SSW,194,1.0,2.0,82,0.00,,,0.00,Wunderground v.1.15,2013-02-23 10:18:00,
2013-02-23 05:19:00,27.3,22.5,30.32,West,269,1.0,3.0,82,0.00,,,0.00,Wunderground v.1.15,2013-02-23 10:19:00,
2013-02-23 05:20:00,27.3,22.5,30.32,WSW,248,1.0,2.0,82,0.00,,,0.00,Wunderground v.1.15,2013-02-23 10:20:00,
2013-02-23 05:23:00,27.3,22.5,30.32,NE,56,0.0,5.0,82,0.00,,,0.00,Wunderground v.1.15,2013-02-23 10:23:00,
2013-02-23 05:24:00,27.3,22.5,30.32,SSW,201,1.0,5.0,82,0.00,,,0.00,Wunderground v.1.15,2013-02-23 10:24:00,
2013-02-23 05:25:00,27.3,22.5,30.32,SSW,201,0.0,5.0,82,0.00,,,0.00,Wunderground v.1.15,2013-02-23 10:25:00,
2013-02-23 05:28:00,27.3,22.5,30.32,East,93,0.0,5.0,82,0.00,,,0.00,Wunderground v.1.15,2013-02-23 10:28:00,
2013-02-23 05:29:00,27.3,22.8,30.32,SSW,212,0.0,5.0,83,0.00,,,0.00,Wunderground v.1.15,2013-02-23 10:29:00,
2013-02-23 05:30:00,27.3,22.8,30.32,SSW,213,0.0,1.0,83,0.00,,,0.00,Wunderground v.1.15,2013-02-23 10:30:00,
2013-02-23 05:33:00,27.3,22.8,30.32,SSE,165,0.0,3.0,83,0.00,,,0.00,Wunderground v.1.15,2013-02-23 10:33:00,
2013-02-23 05:34:00,27.3,22.8,30.32,SSE,166,0.0,3.0,83,0.00,,,0.00,Wunderground v.1.15,2013-02-23 10:34:00,
2013-02-23 05:35:00,27.3,22.8,30.32,SSE,167,0.0,3.0,83,0.00,,,0.00,Wunderground v.1.15,2013-02-23 10:35:00,
2013-02-23 05:38:00,27.2,22.7,30.32,WSW,238,1.0,3.0,83,0.00,,,0.00,Wunderground v.1.15,2013-02-23 10:38:00,
2013-02-23 05:40:00,27.3,22.8,30.32,SSE,164,0.0,1.0,83,0.00,,,0.00,Wunderground v.1.15,2013-02-23 10:40:00,
2013-02-23 05:41:00,27.2,22.7,30.32,ESE,110,1.0,1.0,83,0.00,,,0.00,Wunderground v.1.15,2013-02-23 10:41:00,
2013-02-23 05:43:00,27.3,22.8,30.32,ESE,110,0.0,1.0,83,0.00,,,0.00,Wunderground v.1.15,2013-02-23 10:43:00,
2013-02-23 05:44:00,27.3,22.8,30.32,ESE,110,0.0,1.0,83,0.00,,,0.00,Wunderground v.1.15,2013-02-23 10:44:00,
2013-02-23 05:45:00,27.3,22.8,30.32,ESE,112,0.0,1.0,83,0.00,,,0.00,Wunderground v.1.15,2013-02-23 10:45:00,
2013-02-23 05:46:00,27.2,22.7,30.32,SSW,197,1.0,1.0,83,0.00,,,0.00,Wunderground v.1.15,2013-02-23 10:46:00,
2013-02-23 05:48:00,27.3,22.8,30.32,SSW,194,0.0,2.0,83,0.00,,,0.00,Wunderground v.1.15,2013-02-23 10:48:00,
2013-02-23 05:49:00,27.2,22.7,30.32,SSW,194,0.0,2.0,83,0.00,,,0.00,Wunderground v.1.15,2013-02-23 10:49:00,
2013-02-23 05:50:00,27.2,22.7,30.32,SSW,194,0.0,0.0,83,0.00,,,0.00,Wunderground v.1.15,2013-02-23 10:50:00,
2013-02-23 05:51:00,27.2,22.7,30.32,SSW,194,0.0,0.0,83,0.00,,,0.00,Wunderground v.1.15,2013-02-23 10:51:00,
2013-02-23 05:53:00,27.2,22.7,30.32,WNW,288,0.0,1.0,83,0.00,,,0.00,Wunderground v.1.15,2013-02-23 10:53:00,
2013-02-23 05:54:00,27.2,22.7,30.32,ESE,103,1.0,3.0,83,0.00,,,0.00,Wunderground v.1.15,2013-02-23 10:54:00,
2013-02-23 05:55:00,27.2,22.7,30.32,ESE,109,2.0,3.0,83,0.00,,,0.00,Wunderground v.1.15,2013-02-23 10:55:00,
2013-02-23 05:56:00,27.2,22.7,30.32,ESE,108,0.0,3.0,83,0.00,,,0.00,Wunderground v.1.15,2013-02-23 10:56:00,
2013-02-23 05:58:00,27.2,22.7,30.32,ESE,123,1.0,3.0,83,0.00,,,0.00,Wunderground v.1.15,2013-02-23 10:58:00,
2013-02-23 05:59:00,27.2,22.7,30.32,SSE,162,0.0,3.0,83,0.00,,,0.00,Wunderground v.1.15,2013-02-23 10:59:00,
2013-02-23 06:01:00,27.2,22.7,30.32,SSE,154,0.0,1.0,83,0.00,,,0.00,Wunderground v.1.15,2013-02-23 11:01:00,
2013-02-23 06:02:00,27.3,23.1,30.32,ESE,117,1.0,1.0,84,0.00,,,0.00,Wunderground v.1.15,2013-02-23 11:02:00,
2013-02-23 06:03:00,27.3,23.1,30.32,SSW,210,0.0,1.0,84,0.00,,,0.00,Wunderground v.1.15,2013-02-23 11:03:00,
2013-02-23 06:04:00,27.2,23.0,30.32,SSW,210,0.0,1.0,84,0.00,,,0.00,Wunderground v.1.15,2013-02-23 11:04:00,
2013-02-23 06:07:00,27.2,23.0,30.32,SW,215,0.0,2.0,84,0.00,,,0.00,Wunderground v.1.15,2013-02-23 11:07:00,
2013-02-23 06:08:00,27.2,23.0,30.31,SW,215,0.0,2.0,84,0.00,,,0.00,Wunderground v.1.15,2013-02-23 11:08:00,
2013-02-23 06:09:00,27.2,23.0,30.31,SW,216,0.0,2.0,84,0.00,,,0.00,Wunderground v.1.15,2013-02-23 11:09:00,
2013-02-23 06:12:00,27.2,23.0,30.31,ESE,116,1.0,2.0,84,0.00,,,0.00,Wunderground v.1.15,2013-02-23 11:12:00,
2013-02-23 06:13:00,27.2,23.0,30.31,SSE,160,0.0,2.0,84,0.00,,,0.00,Wunderground v.1.15,2013-02-23 11:13:00,
2013-02-23 06:15:00,27.2,23.0,30.31,SSE,160,0.0,2.0,84,0.00,,,0.00,Wunderground v.1.15,2013-02-23 11:15:00,
2013-02-23 06:17:00,27.2,23.0,30.31,SSW,200,0.0,2.0,84,0.00,,,0.00,Wunderground v.1.15,2013-02-23 11:17:00,
2013-02-23 06:19:00,27.2,23.0,30.31,SSW,207,0.0,2.0,84,0.00,,,0.00,Wunderground v.1.15,2013-02-23 11:19:00,
2013-02-23 06:20:00,27.2,23.0,30.31,SSW,207,0.0,0.0,84,0.00,,,0.00,Wunderground v.1.15,2013-02-23 11:20:00,
2013-02-23 06:22:00,27.2,23.0,30.31,SSW,207,0.0,0.0,84,0.00,,,0.00,Wunderground v.1.15,2013-02-23 11:22:00,
2013-02-23 06:24:00,27.2,23.0,30.31,WSW,255,0.0,1.0,84,0.00,,,0.00,Wunderground v.1.15,2013-02-23 11:24:00,
2013-02-23 06:25:00,27.2,23.0,30.31,WSW,255,0.0,1.0,84,0.00,,,0.00,Wunderground v.1.15,2013-02-23 11:25:00,
2013-02-23 06:27:00,27.3,23.1,30.31,SW,228,0.0,1.0,84,0.00,,,0.00,Wunderground v.1.15,2013-02-23 11:27:00,
2013-02-23 06:29:00,27.3,23.1,30.31,SW,215,1.0,3.0,84,0.00,,,0.00,Wunderground v.1.15,2013-02-23 11:29:00,
2013-02-23 06:30:00,27.3,23.1,30.31,SW,215,0.0,1.0,84,0.00,,,0.00,Wunderground v.1.15,2013-02-23 11:30:00,
2013-02-23 06:32:00,27.3,23.1,30.31,SE,143,0.0,1.0,84,0.00,,,0.00,Wunderground v.1.15,2013-02-23 11:32:00,
2013-02-23 06:33:00,27.3,23.1,30.31,SE,143,1.0,1.0,84,0.00,,,0.00,Wunderground v.1.15,2013-02-23 11:33:00,
2013-02-23 06:34:00,27.3,23.1,30.31,ESE,112,2.0,4.0,84,0.00,,,0.00,Wunderground v.1.15,2013-02-23 11:34:00,
2013-02-23 06:35:00,27.3,23.1,30.31,East,101,2.0,4.0,84,0.00,,,0.00,Wunderground v.1.15,2013-02-23 11:35:00,
2013-02-23 06:37:00,27.3,23.1,30.31,ESE,103,0.0,4.0,84,0.00,,,0.00,Wunderground v.1.15,2013-02-23 11:37:00,
2013-02-23 06:38:00,27.4,23.2,30.30,East,101,0.0,4.0,84,0.00,,,0.00,Wunderground v.1.15,2013-02-23 11:38:00,
2013-02-23 06:39:00,27.4,23.2,30.30,SE,128,0.0,4.0,84,0.00,,,0.00,Wunderground v.1.15,2013-02-23 11:39:00,
2013-02-23 06:40:00,27.4,23.2,30.30,SE,128,0.0,1.0,84,0.00,,,0.00,Wunderground v.1.15,2013-02-23 11:40:00,
2013-02-23 06:43:00,27.4,23.2,30.30,SSE,168,0.0,2.0,84,0.00,,,0.00,Wunderground v.1.15,2013-02-23 11:43:00,
2013-02-23 06:44:00,27.4,23.2,30.30,NW,311,0.0,2.0,84,0.00,,,0.00,Wunderground v.1.15,2013-02-23 11:44:00,
2013-02-23 06:46:00,27.4,23.2,30.30,SSW,193,1.0,3.0,84,0.00,,,0.00,Wunderground v.1.15,2013-02-23 11:46:00,
2013-02-23 06:48:00,27.4,23.2,30.30,ESE,119,2.0,3.0,84,0.00,,,0.00,Wunderground v.1.15,2013-02-23 11:48:00,
2013-02-23 06:49:00,27.4,23.2,30.30,East,100,1.0,3.0,84,0.00,,,0.00,Wunderground v.1.15,2013-02-23 11:49:00,
2013-02-23 06:51:00,27.4,23.2,30.30,ESE,115,2.0,2.0,84,0.00,,,0.00,Wunderground v.1.15,2013-02-23 11:51:00,
2013-02-23 06:53:00,27.4,23.2,30.30,ESE,114,2.0,4.0,84,0.00,,,0.00,Wunderground v.1.15,2013-02-23 11:53:00,
2013-02-23 06:54:00,27.4,23.2,30.30,East,88,2.0,4.0,84,0.00,,,0.00,Wunderground v.1.15,2013-02-23 11:54:00,
2013-02-23 06:55:00,27.5,23.3,30.30,SSE,153,2.0,4.0,84,0.00,,,0.00,Wunderground v.1.15,2013-02-23 11:55:00,
2013-02-23 06:56:00,27.5,23.3,30.30,SE,127,2.0,4.0,84,0.00,,,0.00,Wunderground v.1.15,2013-02-23 11:56:00,
2013-02-23 06:58:00,27.4,23.2,30.30,SW,219,0.0,4.0,84,0.00,,,0.00,Wunderground v.1.15,2013-02-23 11:58:00,
2013-02-23 06:59:00,27.5,23.3,30.30,SW,218,0.0,4.0,84,0.00,,,0.00,Wunderground v.1.15,2013-02-23 11:59:00,
2013-02-23 07:00:00,27.5,23.3,30.30,West,277,1.0,1.0,84,0.00,,,0.00,Wunderground v.1.15,2013-02-23 12:00:00,
2013-02-23 07:02:00,27.5,23.3,30.30,West,276,0.0,1.0,84,0.00,,,0.00,Wunderground v.1.15,2013-02-23 12:02:00,
2013-02-23 07:03:00,27.5,23.3,30.30,SW,214,0.0,1.0,84,0.00,,,0.00,Wunderground v.1.15,2013-02-23 12:03:00,
2013-02-23 07:04:00,27.5,23.3,30.30,SW,214,1.0,1.0,84,0.00,,,0.00,Wunderground v.1.15,2013-02-23 12:04:00,
2013-02-23 07:05:00,27.5,23.3,30.30,SE,134,1.0,4.0,84,0.00,,,0.00,Wunderground v.1.15,2013-02-23 12:05:00,
2013-02-23 07:07:00,27.5,23.3,30.30,WSW,242,0.0,4.0,84,0.00,,,0.00,Wunderground v.1.15,2013-02-23 12:07:00,
2013-02-23 07:08:00,27.5,23.3,30.30,ESE,112,1.0,4.0,84,0.00,,,0.00,Wunderground v.1.15,2013-02-23 12:08:00,
2013-02-23 07:09:00,27.5,23.3,30.31,ESE,112,0.0,4.0,84,0.00,,,0.00,Wunderground v.1.15,2013-02-23 12:09:00,
2013-02-23 07:10:00,27.5,23.3,30.31,ESE,111,0.0,1.0,84,0.00,,,0.00,Wunderground v.1.15,2013-02-23 12:10:00,
2013-02-23 07:12:00,27.5,23.3,30.31,NW,319,1.0,2.0,84,0.00,,,0.00,Wunderground v.1.15,2013-02-23 12:12:00,
2013-02-23 07:14:00,27.5,23.3,30.30,ESE,107,1.0,2.0,84,0.00,,,0.00,Wunderground v.1.15,2013-02-23 12:14:00,
2013-02-23 07:15:00,27.5,23.3,30.30,East,101,2.0,2.0,84,0.00,,,0.00,Wunderground v.1.15,2013-02-23 12:15:00,
2013-02-23 07:17:00,27.5,23.3,30.30,West,270,0.0,2.0,84,0.00,,,0.00,Wunderground v.1.15,2013-02-23 12:17:00,
2013-02-23 07:19:00,27.5,23.3,30.30,ESE,120,2.0,5.0,84,0.00,,,0.00,Wunderground v.1.15,2013-02-23 12:19:00,
2013-02-23 07:20:00,27.5,23.3,30.30,ESE,114,0.0,1.0,84,0.00,,,0.00,Wunderground v.1.15,2013-02-23 12:20:00,
2013-02-23 07:22:00,27.5,23.3,30.30,SSE,163,0.0,5.0,84,0.00,,,0.00,Wunderground v.1.15,2013-02-23 12:22:00,
2013-02-23 07:24:00,27.5,23.3,30.30,SSE,148,1.0,5.0,84,0.00,,,0.00,Wunderground v.1.15,2013-02-23 12:24:00,
2013-02-23 07:25:00,27.5,23.3,30.30,East,92,1.0,5.0,84,0.00,,,0.00,Wunderground v.1.15,2013-02-23 12:25:00,
2013-02-23 07:27:00,27.5,23.3,30.30,East,93,2.0,5.0,84,0.00,,,0.00,Wunderground v.1.15,2013-02-23 12:27:00,
2013-02-23 07:29:00,27.6,23.4,30.30,WNW,288,2.0,5.0,84,0.00,,,0.00,Wunderground v.1.15,2013-02-23 12:29:00,
2013-02-23 07:30:00,27.6,23.4,30.30,SE,146,2.0,2.0,84,0.00,,,0.00,Wunderground v.1.15,2013-02-23 12:30:00,
2013-02-23 07:33:00,27.6,23.4,30.30,SW,223,1.0,4.0,84,0.00,,,0.00,Wunderground v.1.15,2013-02-23 12:33:00,
2013-02-23 07:34:00,27.6,23.4,30.30,East,89,1.0,4.0,84,0.00,,,0.00,Wunderground v.1.15,2013-02-23 12:34:00,
2013-02-23 07:36:00,27.6,23.4,30.30,WSW,252,2.0,4.0,84,0.00,,,0.00,Wunderground v.1.15,2013-02-23 12:36:00,
2013-02-23 07:38:00,27.6,23.4,30.30,ESE,116,2.0,5.0,84,0.00,,,0.00,Wunderground v.1.15,2013-02-23 12:38:00,
2013-02-23 07:39:00,27.7,23.5,30.30,SSE,163,1.0,5.0,84,0.00,,,0.00,Wunderground v.1.15,2013-02-23 12:39:00,
2013-02-23 07:40:00,27.6,23.4,30.30,SE,130,1.0,2.0,84,0.00,,,0.00,Wunderground v.1.15,2013-02-23 12:40:00,
2013-02-23 07:41:00,27.6,23.4,30.30,WNW,300,1.0,2.0,84,0.00,,,0.00,Wunderground v.1.15,2013-02-23 12:41:00,
2013-02-23 07:43:00,27.7,23.5,30.30,WSW,245,0.0,2.0,84,0.00,,,0.00,Wunderground v.1.15,2013-02-23 12:43:00,
2013-02-23 07:44:00,27.7,23.5,30.30,South,176,0.0,2.0,84,0.00,,,0.00,Wunderground v.1.15,2013-02-23 12:44:00,
2013-02-23 07:45:00,27.7,23.8,30.30,ESE,112,1.0,2.0,85,0.00,,,0.00,Wunderground v.1.15,2013-02-23 12:45:00,
2013-02-23 07:46:00,27.7,23.8,30.30,East,90,1.0,2.0,85,0.00,,,0.00,Wunderground v.1.15,2013-02-23 12:46:00,
2013-02-23 07:49:00,27.7,23.5,30.30,SSE,157,2.0,2.0,84,0.00,,,0.00,Wunderground v.1.15,2013-02-23 12:49:00,
2013-02-23 07:50:00,27.7,23.5,30.30,WNW,285,1.0,1.0,84,0.00,,,0.00,Wunderground v.1.15,2013-02-23 12:50:00,
2013-02-23 07:51:00,27.7,23.5,30.30,West,274,0.0,2.0,84,0.00,,,0.00,Wunderground v.1.15,2013-02-23 12:51:00,
2013-02-23 07:54:00,27.7,23.5,30.30,ESE,112,2.0,4.0,84,0.00,,,0.00,Wunderground v.1.15,2013-02-23 12:54:00,
2013-02-23 07:55:00,27.7,23.5,30.30,ESE,110,0.0,4.0,84,0.00,,,0.00,Wunderground v.1.15,2013-02-23 12:55:00,
2013-02-23 07:56:00,27.7,23.5,30.30,ESE,112,1.0,4.0,84,0.00,,,0.00,Wunderground v.1.15,2013-02-23 12:56:00,
2013-02-23 07:59:00,27.8,23.6,30.30,SE,139,1.0,5.0,84,0.00,,,0.00,Wunderground v.1.15,2013-02-23 12:59:00,
2013-02-23 08:02:00,27.7,23.5,30.30,ESE,113,0.0,1.0,84,0.00,,,0.00,Wunderground v.1.15,2013-02-23 13:02:00,
2013-02-23 08:05:00,27.8,23.6,30.30,ESE,103,0.0,1.0,84,0.00,,,0.00,Wunderground v.1.15,2013-02-23 13:05:00,
2013-02-23 08:07:00,27.9,23.7,30.30,SE,143,0.0,1.0,84,0.00,,,0.00,Wunderground v.1.15,2013-02-23 13:07:00,
2013-02-23 08:10:00,27.9,23.7,30.30,West,269,1.0,1.0,84,0.00,,,0.00,Wunderground v.1.15,2013-02-23 13:10:00,
2013-02-23 08:12:00,27.9,24.0,30.30,SE,127,2.0,3.0,85,0.00,,,0.00,Wunderground v.1.15,2013-02-23 13:12:00,
2013-02-23 08:16:00,27.9,23.7,30.30,SSE,155,0.0,4.0,84,0.00,,,0.00,Wunderground v.1.15,2013-02-23 13:16:00,
2013-02-23 08:17:00,27.9,24.0,30.30,SSE,155,0.0,4.0,85,0.00,,,0.00,Wunderground v.1.15,2013-02-23 13:17:00,
2013-02-23 08:21:00,28.0,24.1,30.30,SW,214,0.0,1.0,85,0.00,,,0.00,Wunderground v.1.15,2013-02-23 13:21:00,
2013-02-23 08:22:00,28.0,24.1,30.30,North,4,0.0,1.0,85,0.00,,,0.00,Wunderground v.1.15,2013-02-23 13:22:00,
2013-02-23 08:23:00,28.0,23.8,30.30,SW,232,0.0,2.0,84,0.00,,,0.00,Wunderground v.1.15,2013-02-23 13:23:00,
2013-02-23 08:26:00,28.1,23.9,30.30,ESE,120,2.0,3.0,84,0.00,,,0.00,Wunderground v.1.15,2013-02-23 13:26:00,
2013-02-23 08:27:00,28.1,23.9,30.30,ESE,115,1.0,3.0,84,0.00,,,0.00,Wunderground v.1.15,2013-02-23 13:27:00,
2013-02-23 08:28:00,28.1,23.9,30.30,SSW,207,0.0,3.0,84,0.00,,,0.00,Wunderground v.1.15,2013-02-23 13:28:00,
2013-02-23 08:31:00,28.1,24.2,30.30,SE,146,0.0,1.0,85,0.00,,,0.00,Wunderground v.1.15,2013-02-23 13:31:00,
2013-02-23 08:32:00,28.1,24.2,30.30,SSE,160,1.0,2.0,85,0.00,,,0.00,Wunderground v.1.15,2013-02-23 13:32:00,
2013-02-23 08:33:00,28.1,24.2,30.30,ESE,120,2.0,2.0,85,0.00,,,0.00,Wunderground v.1.15,2013-02-23 13:33:00,
2013-02-23 08:36:00,28.2,24.3,30.30,ESE,114,0.0,4.0,85,0.00,,,0.00,Wunderground v.1.15,2013-02-23 13:36:00,
2013-02-23 08:37:00,28.2,24.3,30.30,SE,129,0.0,4.0,85,0.00,,,0.00,Wunderground v.1.15,2013-02-23 13:37:00,
2013-02-23 08:38:00,28.2,24.3,30.30,SE,130,0.0,4.0,85,0.00,,,0.00,Wunderground v.1.15,2013-02-23 13:38:00,
2013-02-23 08:42:00,28.2,24.3,30.30,South,186,1.0,2.0,85,0.00,,,0.00,Wunderground v.1.15,2013-02-23 13:42:00,
2013-02-23 08:43:00,28.2,24.0,30.29,South,187,1.0,4.0,84,0.00,,,0.00,Wunderground v.1.15,2013-02-23 13:43:00,
2013-02-23 08:44:00,28.2,24.0,30.29,SSE,166,0.0,4.0,84,0.00,,,0.00,Wunderground v.1.15,2013-02-23 13:44:00,
2013-02-23 08:47:00,28.2,24.0,30.29,East,92,3.0,4.0,84,0.00,,,0.00,Wunderground v.1.15,2013-02-23 13:47:00,
2013-02-23 08:48:00,28.3,24.1,30.29,SE,130,0.0,4.0,84,0.00,,,0.00,Wunderground v.1.15,2013-02-23 13:48:00,
2013-02-23 08:49:00,28.3,24.4,30.29,South,188,0.0,4.0,85,0.00,,,0.00,Wunderground v.1.15,2013-02-23 13:49:00,
2013-02-23 08:52:00,28.3,24.4,30.28,SW,235,1.0,4.0,85,0.00,,,0.00,Wunderground v.1.15,2013-02-23 13:52:00,
2013-02-23 08:53:00,28.3,24.4,30.28,SW,235,0.0,4.0,85,0.00,,,0.00,Wunderground v.1.15,2013-02-23 13:53:00,
2013-02-23 08:54:00,28.3,24.1,30.28,SW,235,0.0,4.0,84,0.00,,,0.00,Wunderground v.1.15,2013-02-23 13:54:00,
2013-02-23 08:57:00,28.4,24.5,30.28,WSW,249,0.0,4.0,85,0.00,,,0.00,Wunderground v.1.15,2013-02-23 13:57:00,
2013-02-23 08:58:00,28.4,24.5,30.28,ESE,123,2.0,4.0,85,0.00,,,0.00,Wunderground v.1.15,2013-02-23 13:58:00,
2013-02-23 09:00:00,28.5,24.6,30.28,SE,138,1.0,1.0,85,0.00,,,0.00,Wunderground v.1.15,2013-02-23 14:00:00,
2013-02-23 09:02:00,28.5,24.3,30.28,ESE,108,0.0,2.0,84,0.00,,,0.00,Wunderground v.1.15,2013-02-23 14:02:00,
2013-02-23 09:03:00,28.5,24.3,30.28,ESE,109,0.0,2.0,84,0.00,,,0.00,Wunderground v.1.15,2013-02-23 14:03:00,
2013-02-23 09:05:00,28.4,24.2,30.28,ESE,115,3.0,5.0,84,0.00,,,0.00,Wunderground v.1.15,2013-02-23 14:05:00,
2013-02-23 09:07:00,28.5,24.3,30.28,WSW,255,0.0,5.0,84,0.00,,,0.00,Wunderground v.1.15,2013-02-23 14:07:00,
2013-02-23 09:08:00,28.5,24.3,30.28,WSW,254,0.0,5.0,84,0.00,,,0.00,Wunderground v.1.15,2013-02-23 14:08:00,
2013-02-23 09:10:00,28.6,24.7,30.28,SW,224,0.0,1.0,85,0.00,,,0.00,Wunderground v.1.15,2013-02-23 14:10:00,
2013-02-23 09:12:00,28.7,24.5,30.28,ESE,108,0.0,3.0,84,0.00,,,0.00,Wunderground v.1.15,2013-02-23 14:12:00,
2013-02-23 09:13:00,28.7,24.5,30.28,ESE,108,1.0,3.0,84,0.00,,,0.00,Wunderground v.1.15,2013-02-23 14:13:00,
2013-02-23 09:15:00,28.7,24.5,30.28,ENE,77,3.0,5.0,84,0.00,,,0.00,Wunderground v.1.15,2013-02-23 14:15:00,
2013-02-23 09:17:00,28.6,24.4,30.28,ESE,120,1.0,5.0,84,0.00,,,0.00,Wunderground v.1.15,2013-02-23 14:17:00,
2013-02-23 09:18:00,28.6,24.7,30.28,SE,131,0.0,5.0,85,0.00,,,0.00,Wunderground v.1.15,2013-02-23 14:18:00,
2013-02-23 09:20:00,28.7,24.5,30.28,SE,134,0.0,1.0,84,0.00,,,0.00,Wunderground v.1.15,2013-02-23 14:20:00,
2013-02-23 09:22:00,28.7,24.5,30.28,ESE,112,3.0,3.0,84,0.00,,,0.00,Wunderground v.1.15,2013-02-23 14:22:00,
2013-02-23 09:23:00,28.8,24.6,30.27,ESE,121,0.0,3.0,84,0.00,,,0.00,Wunderground v.1.15,2013-02-23 14:23:00,
2013-02-23 09:25:00,28.8,24.6,30.27,ESE,122,0.0,3.0,84,0.00,,,0.00,Wunderground v.1.15,2013-02-23 14:25:00,
2013-02-23 09:27:00,28.9,25.0,30.27,ESE,117,1.0,3.0,85,0.00,,,0.00,Wunderground v.1.15,2013-02-23 14:27:00,
2013-02-23 09:28:00,28.9,24.7,30.27,ESE,117,0.0,3.0,84,0.00,,,0.00,Wunderground v.1.15,2013-02-23 14:28:00,
2013-02-23 09:30:00,29.0,24.8,30.27,SSE,155,0.0,2.0,84,0.00,,,0.00,Wunderground v.1.15,2013-02-23 14:30:00,
2013-02-23 09:32:00,29.1,24.9,30.27,ESE,103,2.0,3.0,84,0.00,,,0.00,Wunderground v.1.15,2013-02-23 14:32:00,
2013-02-23 09:33:00,29.0,24.8,30.27,ESE,112,0.0,3.0,84,0.00,,,0.00,Wunderground v.1.15,2013-02-23 14:33:00,
2013-02-23 09:35:00,29.0,24.8,30.27,ESE,111,0.0,3.0,84,0.00,,,0.00,Wunderground v.1.15,2013-02-23 14:35:00,
2013-02-23 09:37:00,29.1,24.9,30.27,SE,134,1.0,3.0,84,0.00,,,0.00,Wunderground v.1.15,2013-02-23 14:37:00,
2013-02-23 09:38:00,29.2,25.0,30.27,ESE,107,0.0,3.0,84,0.00,,,0.00,Wunderground v.1.15,2013-02-23 14:38:00,
2013-02-23 09:39:00,29.2,25.0,30.27,ESE,107,0.0,3.0,84,0.00,,,0.00,Wunderground v.1.15,2013-02-23 14:39:00,
2013-02-23 09:40:00,29.2,25.0,30.27,ESE,108,0.0,1.0,84,0.00,,,0.00,Wunderground v.1.15,2013-02-23 14:40:00,
2013-02-23 09:42:00,29.3,25.4,30.27,ESE,107,0.0,1.0,85,0.00,,,0.00,Wunderground v.1.15,2013-02-23 14:42:00,
2013-02-23 09:44:00,29.4,25.2,30.27,NE,43,0.0,1.0,84,0.00,,,0.00,Wunderground v.1.15,2013-02-23 14:44:00,
2013-02-23 09:45:00,29.4,25.2,30.27,East,79,1.0,1.0,84,0.00,,,0.00,Wunderground v.1.15,2013-02-23 14:45:00,
2013-02-23 09:48:00,29.4,25.2,30.27,South,187,0.0,2.0,84,0.00,,,0.00,Wunderground v.1.15,2013-02-23 14:48:00,
2013-02-23 09:49:00,29.4,25.2,30.27,ESE,103,1.0,2.0,84,0.00,,,0.00,Wunderground v.1.15,2013-02-23 14:49:00,
2013-02-23 09:50:00,29.4,25.2,30.26,ESE,116,2.0,4.0,84,0.00,,,0.00,Wunderground v.1.15,2013-02-23 14:50:00,
2013-02-23 09:53:00,29.4,25.2,30.26,SE,127,1.0,4.0,84,0.00,,,0.00,Wunderground v.1.15,2013-02-23 14:53:00,
2013-02-23 09:54:00,29.5,25.3,30.26,WSW,255,1.0,4.0,84,0.00,,,0.00,Wunderground v.1.15,2013-02-23 14:54:00,
2013-02-23 09:55:00,29.5,25.3,30.26,SSW,198,1.0,4.0,84,0.00,,,0.00,Wunderground v.1.15,2013-02-23 14:55:00,
2013-02-23 09:58:00,29.6,25.4,30.26,ESE,123,4.0,5.0,84,0.00,,,0.00,Wunderground v.1.15,2013-02-23 14:58:00,
2013-02-23 09:59:00,29.5,25.3,30.26,ESE,108,1.0,5.0,84,0.00,,,0.00,Wunderground v.1.15,2013-02-23 14:59:00,
2013-02-23 10:02:00,29.5,25.3,30.26,SE,127,1.0,2.0,84,0.00,,,0.00,Wunderground v.1.15,2013-02-23 15:02:00,
2013-02-23 10:03:00,29.5,25.3,30.26,ESE,108,4.0,4.0,84,0.00,,,0.00,Wunderground v.1.15,2013-02-23 15:03:00,
2013-02-23 10:04:00,29.4,25.2,30.26,East,101,2.0,7.0,84,0.00,,,0.00,Wunderground v.1.15,2013-02-23 15:04:00,
2013-02-23 10:07:00,29.4,25.4,30.26,ESE,103,4.0,7.0,85,0.00,,,0.00,Wunderground v.1.15,2013-02-23 15:07:00,
2013-02-23 10:08:00,29.4,25.4,30.26,SE,141,0.0,7.0,85,0.00,,,0.00,Wunderground v.1.15,2013-02-23 15:08:00,
2013-02-23 10:09:00,29.4,25.4,30.26,ESE,102,1.0,7.0,85,0.00,,,0.00,Wunderground v.1.15,2013-02-23 15:09:00,
2013-02-23 10:12:00,29.4,25.7,30.26,ESE,114,1.0,4.0,86,0.00,,,0.00,Wunderground v.1.15,2013-02-23 15:12:00,
2013-02-23 10:13:00,29.4,25.7,30.26,East,86,2.0,4.0,86,0.00,,,0.00,Wunderground v.1.15,2013-02-23 15:13:00,
2013-02-23 10:14:00,29.4,25.4,30.26,WSW,240,0.0,4.0,85,0.00,,,0.00,Wunderground v.1.15,2013-02-23 15:14:00,
2013-02-23 10:17:00,29.4,25.7,30.26,South,191,0.0,5.0,86,0.00,,,0.00,Wunderground v.1.15,2013-02-23 15:17:00,
2013-02-23 10:18:00,29.4,25.7,30.26,East,82,2.0,5.0,86,0.00,,,0.00,Wunderground v.1.15,2013-02-23 15:18:00,
2013-02-23 10:19:00,29.4,25.7,30.26,SW,235,1.0,5.0,86,0.00,,,0.00,Wunderground v.1.15,2013-02-23 15:19:00,
2013-02-23 10:22:00,29.4,26.0,30.26,WSW,250,1.0,2.0,87,0.00,,,0.00,Wunderground v.1.15,2013-02-23 15:22:00,
2013-02-23 10:23:00,29.4,26.0,30.26,ENE,72,1.0,2.0,87,0.00,,,0.00,Wunderground v.1.15,2013-02-23 15:23:00,
2013-02-23 10:24:00,29.5,26.1,30.26,SSE,160,3.0,4.0,87,0.00,,,0.00,Wunderground v.1.15,2013-02-23 15:24:00,
2013-02-23 10:25:00,29.5,26.1,30.26,ESE,116,0.0,4.0,87,0.00,,,0.00,Wunderground v.1.15,2013-02-23 15:25:00,
2013-02-23 10:27:00,29.4,26.0,30.26,ESE,109,0.0,4.0,87,0.00,,,0.00,Wunderground v.1.15,2013-02-23 15:27:00,
2013-02-23 10:29:00,29.5,26.1,30.25,East,85,2.0,4.0,87,0.00,,,0.00,Wunderground v.1.15,2013-02-23 15:29:00,
2013-02-23 10:30:00,29.5,26.4,30.25,ESE,119,1.0,1.0,88,0.00,,,0.00,Wunderground v.1.15,2013-02-23 15:30:00,
2013-02-23 10:32:00,29.4,26.3,30.26,ESE,122,0.0,4.0,88,0.00,,,0.00,Wunderground v.1.15,2013-02-23 15:32:00,
2013-02-23 10:34:00,29.4,26.3,30.25,SE,129,2.0,4.0,88,0.00,,,0.00,Wunderground v.1.15,2013-02-23 15:34:00,
2013-02-23 10:35:00,29.4,26.3,30.25,ESE,108,3.0,4.0,88,0.00,,,0.00,Wunderground v.1.15,2013-02-23 15:35:00,
2013-02-23 10:37:00,29.4,26.3,30.25,East,93,2.0,4.0,88,0.00,,,0.00,Wunderground v.1.15,2013-02-23 15:37:00,
2013-02-23 10:39:00,29.4,26.3,30.25,ESE,105,0.0,4.0,88,0.00,,,0.00,Wunderground v.1.15,2013-02-23 15:39:00,
2013-02-23 10:40:00,29.4,26.3,30.25,ESE,116,0.0,2.0,88,0.00,,,0.00,Wunderground v.1.15,2013-02-23 15:40:00,
2013-02-23 10:43:00,29.4,26.3,30.25,SSE,150,2.0,3.0,88,0.00,,,0.00,Wunderground v.1.15,2013-02-23 15:43:00,
2013-02-23 10:44:00,29.4,26.3,30.24,ESE,103,2.0,3.0,88,0.00,,,0.00,Wunderground v.1.15,2013-02-23 15:44:00,
2013-02-23 10:45:00,29.5,26.4,30.24,ESE,111,2.0,3.0,88,0.00,,,0.00,Wunderground v.1.15,2013-02-23 15:45:00,
2013-02-23 10:48:00,29.5,26.4,30.24,South,181,2.0,5.0,88,0.00,,,0.00,Wunderground v.1.15,2013-02-23 15:48:00,
2013-02-23 10:49:00,29.6,26.5,30.24,ESE,122,0.0,5.0,88,0.00,,,0.00,Wunderground v.1.15,2013-02-23 15:49:00,
2013-02-23 10:50:00,29.6,26.5,30.24,ESE,121,0.0,2.0,88,0.00,,,0.00,Wunderground v.1.15,2013-02-23 15:50:00,
2013-02-23 10:53:00,29.7,26.6,30.24,ESE,103,2.0,3.0,88,0.00,,,0.00,Wunderground v.1.15,2013-02-23 15:53:00,
2013-02-23 10:54:00,29.7,26.6,30.24,ESE,120,1.0,3.0,88,0.00,,,0.00,Wunderground v.1.15,2013-02-23 15:54:00,
2013-02-23 10:55:00,29.7,26.6,30.24,ESE,120,0.0,3.0,88,0.00,,,0.00,Wunderground v.1.15,2013-02-23 15:55:00,
2013-02-23 10:58:00,29.8,26.4,30.24,ESE,122,1.0,3.0,87,0.00,,,0.00,Wunderground v.1.15,2013-02-23 15:58:00,
2013-02-23 10:59:00,29.8,26.4,30.24,East,79,1.0,4.0,87,0.00,,,0.00,Wunderground v.1.15,2013-02-23 15:59:00,
2013-02-23 11:01:00,29.8,26.4,30.24,ESE,102,0.0,1.0,87,0.00,,,0.00,Wunderground v.1.15,2013-02-23 16:01:00,
2013-02-23 11:03:00,29.8,26.4,30.25,ESE,111,0.0,2.0,87,0.00,,,0.00,Wunderground v.1.15,2013-02-23 16:03:00,
2013-02-23 11:04:00,29.9,26.5,30.25,SSW,193,2.0,4.0,87,0.00,,,0.00,Wunderground v.1.15,2013-02-23 16:04:00,
2013-02-23 11:06:00,29.9,26.5,30.25,SSE,153,0.0,4.0,87,0.00,,,0.00,Wunderground v.1.15,2013-02-23 16:06:00,
2013-02-23 11:08:00,30.0,26.6,30.25,ESE,111,1.0,4.0,87,0.00,,,0.00,Wunderground v.1.15,2013-02-23 16:08:00,
2013-02-23 11:09:00,30.0,26.6,30.25,East,88,1.0,6.0,87,0.00,,,0.00,Wunderground v.1.15,2013-02-23 16:09:00,
2013-02-23 11:11:00,29.9,26.2,30.25,East,81,1.0,3.0,86,0.00,,,0.00,Wunderground v.1.15,2013-02-23 16:11:00,
2013-02-23 11:13:00,30.0,26.6,30.24,East,99,0.0,5.0,87,0.00,,,0.00,Wunderground v.1.15,2013-02-23 16:13:00,
2013-02-23 11:15:00,30.0,26.3,30.24,SE,146,0.0,5.0,86,0.00,,,0.00,Wunderground v.1.15,2013-02-23 16:15:00,
2013-02-23 11:16:00,30.0,26.3,30.24,ESE,108,1.0,5.0,86,0.00,,,0.00,Wunderground v.1.15,2013-02-23 16:16:00,
2013-02-23 11:18:00,30.1,26.4,30.24,South,181,0.0,5.0,86,0.00,,,0.00,Wunderground v.1.15,2013-02-23 16:18:00,
2013-02-23 11:20:00,30.1,26.4,30.24,South,172,0.0,5.0,86,0.00,,,0.00,Wunderground v.1.15,2013-02-23 16:20:00,
2013-02-23 11:22:00,30.1,26.4,30.24,SW,228,0.0,2.0,86,0.00,,,0.00,Wunderground v.1.15,2013-02-23 16:22:00,
2013-02-23 11:23:00,30.1,26.4,30.23,East,82,1.0,2.0,86,0.00,,,0.00,Wunderground v.1.15,2013-02-23 16:23:00,
2013-02-23 11:25:00,30.2,26.5,30.23,ENE,76,1.0,2.0,86,0.00,,,0.00,Wunderground v.1.15,2013-02-23 16:25:00,
2013-02-23 11:27:00,30.1,26.4,30.23,ESE,103,0.0,2.0,86,0.00,,,0.00,Wunderground v.1.15,2013-02-23 16:27:00,
2013-02-23 11:28:00,30.1,26.4,30.23,SE,139,0.0,2.0,86,0.00,,,0.00,Wunderground v.1.15,2013-02-23 16:28:00,
2013-02-23 11:30:00,30.1,26.4,30.23,ESE,110,0.0,2.0,86,0.00,,,0.00,Wunderground v.1.15,2013-02-23 16:30:00,
2013-02-23 11:32:00,30.1,26.4,30.23,SSW,198,0.0,1.0,86,0.00,,,0.00,Wunderground v.1.15,2013-02-23 16:32:00,
2013-02-23 11:33:00,30.2,26.8,30.23,East,101,3.0,3.0,87,0.00,,,0.00,Wunderground v.1.15,2013-02-23 16:33:00,
2013-02-23 11:35:00,30.1,26.7,30.23,ESE,120,3.0,4.0,87,0.00,,,0.00,Wunderground v.1.15,2013-02-23 16:35:00,
2013-02-23 11:37:00,30.0,26.6,30.23,ESE,115,2.0,4.0,87,0.00,,,0.00,Wunderground v.1.15,2013-02-23 16:37:00,
2013-02-23 11:38:00,30.0,26.6,30.23,ESE,108,1.0,4.0,87,0.00,,,0.00,Wunderground v.1.15,2013-02-23 16:38:00,
2013-02-23 11:40:00,29.9,26.5,30.23,SE,134,0.0,4.0,87,0.00,,,0.00,Wunderground v.1.15,2013-02-23 16:40:00,
2013-02-23 11:42:00,29.9,26.5,30.23,WSW,252,1.0,2.0,87,0.00,,,0.00,Wunderground v.1.15,2013-02-23 16:42:00,
2013-02-23 11:43:00,29.9,26.5,30.23,WNW,283,1.0,2.0,87,0.00,,,0.00,Wunderground v.1.15,2013-02-23 16:43:00,
2013-02-23 11:44:00,29.9,26.5,30.23,WNW,283,1.0,2.0,87,0.00,,,0.00,Wunderground v.1.15,2013-02-23 16:44:00,
2013-02-23 11:45:00,29.9,26.8,30.23,ESE,118,1.0,2.0,88,0.00,,,0.00,Wunderground v.1.15,2013-02-23 16:45:00,
2013-02-23 11:47:00,29.9,26.8,30.23,ESE,118,0.0,2.0,88,0.00,,,0.00,Wunderground v.1.15,2013-02-23 16:47:00,
2013-02-23 11:48:00,29.9,26.8,30.23,ESE,110,3.0,3.0,88,0.00,,,0.00,Wunderground v.1.15,2013-02-23 16:48:00,
2013-02-23 11:49:00,29.9,26.8,30.23,ESE,111,3.0,4.0,88,0.00,,,0.00,Wunderground v.1.15,2013-02-23 16:49:00,
2013-02-23 11:50:00,29.9,26.8,30.23,ESE,108,3.0,4.0,88,0.00,,,0.00,Wunderground v.1.15,2013-02-23 16:50:00,
2013-02-23 11:52:00,29.7,26.6,30.23,East,79,2.0,4.0,88,0.00,,,0.00,Wunderground v.1.15,2013-02-23 16:52:00,
2013-02-23 11:53:00,29.7,26.6,30.23,ESE,118,1.0,4.0,88,0.00,,,0.00,Wunderground v.1.15,2013-02-23 16:53:00,
2013-02-23 11:54:00,29.7,26.9,30.23,ESE,122,1.0,4.0,89,0.00,,,0.00,Wunderground v.1.15,2013-02-23 16:54:00,
2013-02-23 11:55:00,29.7,26.9,30.23,ESE,119,3.0,4.0,89,0.00,,,0.00,Wunderground v.1.15,2013-02-23 16:55:00,
2013-02-23 11:57:00,29.6,26.8,30.22,East,84,4.0,5.0,89,0.00,,,0.00,Wunderground v.1.15,2013-02-23 16:57:00,
2013-02-23 11:58:00,29.5,26.7,30.22,East,82,4.0,5.0,89,0.00,,,0.00,Wunderground v.1.15,2013-02-23 16:58:00,
2013-02-23 11:59:00,29.5,26.7,30.22,ENE,74,2.0,5.0,89,0.00,,,0.00,Wunderground v.1.15,2013-02-23 16:59:00,
2013-02-23 12:01:00,29.4,26.6,30.22,ESE,117,2.0,3.0,89,0.00,,,0.00,Wunderground v.1.15,2013-02-23 17:01:00,
2013-02-23 12:02:00,29.4,26.8,30.22,SW,222,2.0,3.0,90,0.00,,,0.00,Wunderground v.1.15,2013-02-23 17:02:00,
2013-02-23 12:03:00,29.4,26.8,30.22,East,91,1.0,3.0,90,0.00,,,0.00,Wunderground v.1.15,2013-02-23 17:03:00,
2013-02-23 12:04:00,29.4,26.8,30.22,East,91,3.0,3.0,90,0.00,,,0.00,Wunderground v.1.15,2013-02-23 17:04:00,
2013-02-23 12:06:00,29.4,26.8,30.22,ESE,114,1.0,3.0,90,0.00,,,0.00,Wunderground v.1.15,2013-02-23 17:06:00,
2013-02-23 12:08:00,29.4,27.1,30.22,ESE,111,2.0,3.0,91,0.00,,,0.00,Wunderground v.1.15,2013-02-23 17:08:00,
2013-02-23 12:09:00,29.4,27.1,30.22,East,92,3.0,6.0,91,0.00,,,0.00,Wunderground v.1.15,2013-02-23 17:09:00,
2013-02-23 12:11:00,29.4,27.1,30.21,ESE,116,2.0,3.0,91,0.00,,,0.00,Wunderground v.1.15,2013-02-23 17:11:00,
2013-02-23 12:13:00,29.4,27.1,30.21,ESE,112,0.0,3.0,91,0.00,,,0.00,Wunderground v.1.15,2013-02-23 17:13:00,
2013-02-23 12:14:00,29.4,27.1,30.21,ESE,112,1.0,3.0,91,0.00,,,0.00,Wunderground v.1.15,2013-02-23 17:14:00,
2013-02-23 12:16:00,29.4,27.1,30.21,ESE,110,1.0,5.0,91,0.00,,,0.00,Wunderground v.1.15,2013-02-23 17:16:00,
2013-02-23 12:18:00,29.4,27.1,30.21,ESE,112,0.0,5.0,91,0.00,,,0.00,Wunderground v.1.15,2013-02-23 17:18:00,
2013-02-23 12:19:00,29.4,27.1,30.21,SE,128,0.0,5.0,91,0.00,,,0.00,Wunderground v.1.15,2013-02-23 17:19:00,
2013-02-23 12:22:00,29.4,27.1,30.21,ESE,103,1.0,2.0,91,0.00,,,0.00,Wunderground v.1.15,2013-02-23 17:22:00,
2013-02-23 12:23:00,29.4,27.1,30.21,ESE,108,4.0,4.0,91,0.00,,,0.00,Wunderground v.1.15,2013-02-23 17:23:00,
2013-02-23 12:24:00,29.4,27.1,30.21,ESE,122,4.0,5.0,91,0.00,,,0.00,Wunderground v.1.15,2013-02-23 17:24:00,
2013-02-23 12:27:00,29.3,27.0,30.20,ESE,106,2.0,5.0,91,0.00,,,0.00,Wunderground v.1.15,2013-02-23 17:27:00,
2013-02-23 12:28:00,29.4,27.4,30.20,ESE,105,2.0,5.0,92,0.00,,,0.00,Wunderground v.1.15,2013-02-23 17:28:00,
2013-02-23 12:29:00,29.3,27.3,30.20,SE,129,2.0,5.0,92,0.00,,,0.00,Wunderground v.1.15,2013-02-23 17:29:00,
2013-02-23 12:32:00,29.4,27.4,30.20,ESE,111,4.0,4.0,92,0.00,,,0.00,Wunderground v.1.15,2013-02-23 17:32:00,
2013-02-23 12:33:00,29.3,27.3,30.20,ESE,115,5.0,6.0,92,0.00,,,0.00,Wunderground v.1.15,2013-02-23 17:33:00,
2013-02-23 12:34:00,29.3,27.3,30.20,ESE,119,1.0,6.0,92,0.00,,,0.00,Wunderground v.1.15,2013-02-23 17:34:00,
2013-02-23 12:35:00,29.3,27.3,30.20,ESE,119,0.0,6.0,92,0.00,,,0.00,Wunderground v.1.15,2013-02-23 17:35:00,
2013-02-23 12:37:00,29.4,27.4,30.20,ESE,116,1.0,6.0,92,0.00,,,0.00,Wunderground v.1.15,2013-02-23 17:37:00,
2013-02-23 12:38:00,29.4,27.4,30.20,East,88,4.0,6.0,92,0.00,,,0.00,Wunderground v.1.15,2013-02-23 17:38:00,
2013-02-23 12:39:00,29.3,27.3,30.20,ESE,105,4.0,6.0,92,0.00,,,0.00,Wunderground v.1.15,2013-02-23 17:39:00,
2013-02-23 12:40:00,29.3,27.3,30.20,SE,125,4.0,4.0,92,0.00,,,0.00,Wunderground v.1.15,2013-02-23 17:40:00,
2013-02-23 12:42:00,29.3,27.3,30.19,East,101,1.0,4.0,92,0.00,,,0.00,Wunderground v.1.15,2013-02-23 17:42:00,
2013-02-23 12:43:00,29.3,27.3,30.19,East,83,2.0,4.0,92,0.00,,,0.00,Wunderground v.1.15,2013-02-23 17:43:00,
2013-02-23 12:44:00,29.3,27.3,30.19,ENE,58,3.0,4.0,92,0.00,,,0.00,Wunderground v.1.15,2013-02-23 17:44:00,
2013-02-23 12:45:00,29.3,27.3,30.19,ESE,110,4.0,6.0,92,0.00,,,0.00,Wunderground v.1.15,2013-02-23 17:45:00,
2013-02-23 12:47:00,29.3,27.3,30.19,ESE,103,0.0,6.0,92,0.00,,,0.00,Wunderground v.1.15,2013-02-23 17:47:00,
2013-02-23 12:48:00,29.3,27.3,30.19,East,96,3.0,6.0,92,0.00,,,0.00,Wunderground v.1.15,2013-02-23 17:48:00,
2013-02-23 12:50:00,29.2,27.2,30.19,ESE,120,2.0,3.0,92,0.00,,,0.00,Wunderground v.1.15,2013-02-23 17:50:00,
2013-02-23 12:52:00,29.3,27.3,30.19,East,85,3.0,6.0,92,0.00,,,0.00,Wunderground v.1.15,2013-02-23 17:52:00,
2013-02-23 12:53:00,29.2,27.2,30.19,SE,136,3.0,6.0,92,0.00,,,0.00,Wunderground v.1.15,2013-02-23 17:53:00,
2013-02-23 12:55:00,29.2,27.2,30.19,East,94,1.0,6.0,92,0.00,,,0.00,Wunderground v.1.15,2013-02-23 17:55:00,
2013-02-23 12:57:00,29.3,27.3,30.19,ESE,108,2.0,6.0,92,0.00,,,0.00,Wunderground v.1.15,2013-02-23 17:57:00,
2013-02-23 12:58:00,29.3,27.3,30.19,ESE,117,1.0,6.0,92,0.00,,,0.00,Wunderground v.1.15,2013-02-23 17:58:00,
2013-02-23 13:01:00,29.3,27.5,30.19,East,85,2.0,2.0,93,0.00,,,0.00,Wunderground v.1.15,2013-02-23 18:01:00,
2013-02-23 13:02:00,29.4,27.6,30.19,East,85,0.0,2.0,93,0.00,,,0.00,Wunderground v.1.15,2013-02-23 18:02:00,
2013-02-23 13:03:00,29.4,27.6,30.19,East,85,0.0,2.0,93,0.00,,,0.00,Wunderground v.1.15,2013-02-23 18:03:00,
2013-02-23 13:06:00,29.4,27.4,30.19,ENE,75,2.0,5.0,92,0.00,,,0.00,Wunderground v.1.15,2013-02-23 18:06:00,
2013-02-23 13:08:00,29.3,27.3,30.20,East,97,6.0,7.0,92,0.00,,,0.00,Wunderground v.1.15,2013-02-23 18:08:00,
2013-02-23 13:11:00,29.3,27.3,30.20,East,92,1.0,2.0,92,0.00,,,0.00,Wunderground v.1.15,2013-02-23 18:11:00,
2013-02-23 13:13:00,29.3,27.3,30.20,ESE,103,2.0,4.0,92,0.00,,,0.00,Wunderground v.1.15,2013-02-23 18:13:00,
2013-02-23 13:16:00,29.3,27.3,30.19,East,89,3.0,7.0,92,0.00,,,0.00,Wunderground v.1.15,2013-02-23 18:16:00,
2013-02-23 13:18:00,29.3,27.3,30.20,East,88,2.0,7.0,92,0.00,,,0.00,Wunderground v.1.15,2013-02-23 18:18:00,
2013-02-23 13:21:00,29.4,27.4,30.19,ENE,75,3.0,3.0,92,0.00,,,0.00,Wunderground v.1.15,2013-02-23 18:21:00,
2013-02-23 13:23:00,29.4,27.4,30.20,ESE,118,1.0,5.0,92,0.00,,,0.00,Wunderground v.1.15,2013-02-23 18:23:00,
2013-02-23 13:26:00,29.5,27.5,30.19,ENE,64,2.0,5.0,92,0.00,,,0.00,Wunderground v.1.15,2013-02-23 18:26:00,
2013-02-23 13:27:00,29.5,27.5,30.19,ENE,78,1.0,5.0,92,0.00,,,0.00,Wunderground v.1.15,2013-02-23 18:27:00,
2013-02-23 13:28:00,29.5,27.5,30.20,ESE,115,1.0,5.0,92,0.00,,,0.00,Wunderground v.1.15,2013-02-23 18:28:00,
2013-02-23 13:29:00,29.5,27.5,30.20,ESE,103,2.0,5.0,92,0.00,,,0.00,Wunderground v.1.15,2013-02-23 18:29:00,
2013-02-23 13:31:00,29.5,27.5,30.19,ESE,103,3.0,3.0,92,0.00,,,0.00,Wunderground v.1.15,2013-02-23 18:31:00,
2013-02-23 13:32:00,29.6,27.6,30.19,East,94,5.0,5.0,92,0.00,,,0.00,Wunderground v.1.15,2013-02-23 18:32:00,
2013-02-23 13:33:00,29.5,27.5,30.19,ESE,112,2.0,6.0,92,0.00,,,0.00,Wunderground v.1.15,2013-02-23 18:33:00,
2013-02-23 13:34:00,29.5,27.5,30.19,ESE,114,2.0,6.0,92,0.00,,,0.00,Wunderground v.1.15,2013-02-23 18:34:00,
2013-02-23 13:36:00,29.6,27.8,30.19,ESE,108,2.0,6.0,93,0.00,,,0.00,Wunderground v.1.15,2013-02-23 18:36:00,
2013-02-23 13:37:00,29.6,27.8,30.19,ESE,105,1.0,6.0,93,0.00,,,0.00,Wunderground v.1.15,2013-02-23 18:37:00,
2013-02-23 13:38:00,29.6,27.8,30.19,ESE,105,1.0,6.0,93,0.00,,,0.00,Wunderground v.1.15,2013-02-23 18:38:00,
2013-02-23 13:39:00,29.6,27.8,30.19,ESE,105,0.0,6.0,93,0.00,,,0.00,Wunderground v.1.15,2013-02-23 18:39:00,
2013-02-23 13:41:00,29.8,28.0,30.19,ESE,121,2.0,3.0,93,0.00,,,0.00,Wunderground v.1.15,2013-02-23 18:41:00,
2013-02-23 13:42:00,29.8,28.0,30.19,ESE,117,3.0,3.0,93,0.00,,,0.00,Wunderground v.1.15,2013-02-23 18:42:00,
2013-02-23 13:43:00,29.8,28.0,30.19,ESE,108,2.0,3.0,93,0.00,,,0.00,Wunderground v.1.15,2013-02-23 18:43:00,
2013-02-23 13:44:00,29.8,28.0,30.19,ESE,107,1.0,3.0,93,0.00,,,0.00,Wunderground v.1.15,2013-02-23 18:44:00,
2013-02-23 13:47:00,29.8,28.0,30.19,East,79,2.0,3.0,93,0.00,,,0.00,Wunderground v.1.15,2013-02-23 18:47:00,
2013-02-23 13:49:00,29.8,28.0,30.19,ESE,103,2.0,4.0,93,0.00,,,0.00,Wunderground v.1.15,2013-02-23 18:49:00,
2013-02-23 13:52:00,29.7,27.9,30.19,East,90,0.0,2.0,93,0.00,,,0.00,Wunderground v.1.15,2013-02-23 18:52:00,
2013-02-23 13:54:00,29.8,28.0,30.19,SW,214,0.0,2.0,93,0.00,,,0.00,Wunderground v.1.15,2013-02-23 18:54:00,
2013-02-23 13:57:00,29.9,28.1,30.19,SSW,208,1.0,2.0,93,0.00,,,0.00,Wunderground v.1.15,2013-02-23 18:57:00,
2013-02-23 13:59:00,29.9,28.1,30.19,East,96,2.0,2.0,93,0.00,,,0.00,Wunderground v.1.15,2013-02-23 18:59:00,
2013-02-23 14:02:00,29.9,28.1,30.19,SW,224,0.0,1.0,93,0.00,,,0.00,Wunderground v.1.15,2013-02-23 19:02:00,
2013-02-23 14:04:00,29.9,28.1,30.19,ESE,115,1.0,1.0,93,0.00,,,0.00,Wunderground v.1.15,2013-02-23 19:04:00,
2013-02-23 14:07:00,29.9,28.1,30.19,ESE,115,1.0,1.0,93,0.00,,,0.00,Wunderground v.1.15,2013-02-23 19:07:00,
2013-02-23 14:09:00,29.9,28.1,30.19,ESE,116,1.0,1.0,93,0.00,,,0.00,Wunderground v.1.15,2013-02-23 19:09:00,
2013-02-23 14:12:00,29.9,28.1,30.19,ENE,70,0.0,1.0,93,0.00,,,0.00,Wunderground v.1.15,2013-02-23 19:12:00,
2013-02-23 14:14:00,29.9,28.1,30.19,ENE,72,0.0,1.0,93,0.00,,,0.00,Wunderground v.1.15,2013-02-23 19:14:00,
2013-02-23 14:17:00,30.1,28.6,30.18,ENE,72,0.0,1.0,94,0.00,,,0.00,Wunderground v.1.15,2013-02-23 19:17:00,
2013-02-23 14:18:00,30.1,28.6,30.18,ENE,72,0.0,1.0,94,0.00,,,0.00,Wunderground v.1.15,2013-02-23 19:18:00,
2013-02-23 14:19:00,30.2,28.7,30.18,ENE,72,0.0,1.0,94,0.00,,,0.00,Wunderground v.1.15,2013-02-23 19:19:00,
2013-02-23 14:23:00,30.4,28.9,30.18,East,97,0.0,1.0,94,0.00,,,0.00,Wunderground v.1.15,2013-02-23 19:23:00,
2013-02-23 14:24:00,30.4,28.9,30.18,ESE,122,1.0,2.0,94,0.00,,,0.00,Wunderground v.1.15,2013-02-23 19:24:00,
2013-02-23 14:28:00,30.4,28.6,30.17,ESE,121,0.0,2.0,93,0.00,,,0.00,Wunderground v.1.15,2013-02-23 19:28:00,
2013-02-23 14:29:00,30.5,29.0,30.17,ESE,121,0.0,2.0,94,0.00,,,0.00,Wunderground v.1.15,2013-02-23 19:29:00,
2013-02-23 14:30:00,30.5,29.0,30.17,ESE,121,0.0,0.0,94,0.00,,,0.00,Wunderground v.1.15,2013-02-23 19:30:00,
2013-02-23 14:33:00,30.6,29.1,30.17,East,94,0.0,1.0,94,0.00,,,0.00,Wunderground v.1.15,2013-02-23 19:33:00,
2013-02-23 14:34:00,30.6,29.1,30.17,NNW,342,1.0,1.0,94,0.00,,,0.00,Wunderground v.1.15,2013-02-23 19:34:00,
2013-02-23 14:35:00,30.6,29.1,30.17,NNW,342,0.0,1.0,94,0.00,,,0.00,Wunderground v.1.15,2013-02-23 19:35:00,
2013-02-23 14:38:00,30.7,28.9,30.17,NNW,342,0.0,1.0,93,0.00,,,0.00,Wunderground v.1.15,2013-02-23 19:38:00,
2013-02-23 14:40:00,30.7,28.9,30.17,ESE,103,1.0,1.0,93,0.00,,,0.00,Wunderground v.1.15,2013-02-23 19:40:00,
2013-02-23 14:43:00,30.7,28.9,30.17,ESE,115,0.0,1.0,93,0.00,,,0.00,Wunderground v.1.15,2013-02-23 19:43:00,
2013-02-23 14:45:00,30.7,28.9,30.17,East,92,1.0,1.0,93,0.00,,,0.00,Wunderground v.1.15,2013-02-23 19:45:00,
2013-02-23 14:48:00,30.7,28.9,30.17,SSW,205,1.0,2.0,93,0.00,,,0.00,Wunderground v.1.15,2013-02-23 19:48:00,
2013-02-23 14:50:00,30.7,28.9,30.17,NW,326,0.0,1.0,93,0.00,,,0.00,Wunderground v.1.15,2013-02-23 19:50:00,
2013-02-23 14:53:00,30.7,28.9,30.17,South,190,0.0,1.0,93,0.00,,,0.00,Wunderground v.1.15,2013-02-23 19:53:00,
2013-02-23 14:54:00,30.7,28.9,30.17,South,191,0.0,1.0,93,0.00,,,0.00,Wunderground v.1.15,2013-02-23 19:54:00,
2013-02-23 14:55:00,30.7,28.9,30.17,ESE,103,1.0,2.0,93,0.00,,,0.00,Wunderground v.1.15,2013-02-23 19:55:00,
2013-02-23 14:58:00,30.7,28.9,30.17,ESE,108,2.0,2.0,93,0.00,,,0.00,Wunderground v.1.15,2013-02-23 19:58:00,
2013-02-23 14:59:00,30.7,28.9,30.17,SE,125,1.0,3.0,93,0.00,,,0.00,Wunderground v.1.15,2013-02-23 19:59:00,
2013-02-23 15:01:00,30.6,28.8,30.17,East,96,1.0,1.0,93,0.00,,,0.00,Wunderground v.1.15,2013-02-23 20:01:00,
2013-02-23 15:03:00,30.6,28.8,30.17,ESE,119,1.0,2.0,93,0.00,,,0.00,Wunderground v.1.15,2013-02-23 20:03:00,
2013-02-23 15:04:00,30.6,28.8,30.17,East,84,2.0,2.0,93,0.00,,,0.00,Wunderground v.1.15,2013-02-23 20:04:00,
2013-02-23 15:07:00,30.6,28.8,30.17,SW,214,2.0,2.0,93,0.00,,,0.00,Wunderground v.1.15,2013-02-23 20:07:00,
2013-02-23 15:08:00,30.6,28.8,30.17,East,96,2.0,4.0,93,0.00,,,0.00,Wunderground v.1.15,2013-02-23 20:08:00,
2013-02-23 15:09:00,30.6,28.6,30.17,ESE,109,1.0,4.0,92,0.00,,,0.00,Wunderground v.1.15,2013-02-23 20:09:00,
2013-02-23 15:12:00,30.6,28.6,30.17,ESE,102,2.0,3.0,92,0.00,,,0.00,Wunderground v.1.15,2013-02-23 20:12:00,
2013-02-23 15:13:00,30.6,28.6,30.17,SE,130,0.0,3.0,92,0.00,,,0.00,Wunderground v.1.15,2013-02-23 20:13:00,
2013-02-23 15:14:00,30.6,28.8,30.17,SE,133,2.0,4.0,93,0.00,,,0.00,Wunderground v.1.15,2013-02-23 20:14:00,
2013-02-23 15:17:00,30.5,28.5,30.16,East,101,2.0,4.0,92,0.00,,,0.00,Wunderground v.1.15,2013-02-23 20:17:00,
2013-02-23 15:19:00,30.5,28.5,30.16,ESE,103,1.0,5.0,92,0.00,,,0.00,Wunderground v.1.15,2013-02-23 20:19:00,
2013-02-23 15:22:00,30.5,28.5,30.16,SSW,203,1.0,2.0,92,0.00,,,0.00,Wunderground v.1.15,2013-02-23 20:22:00,
2013-02-23 15:24:00,30.5,28.5,30.16,ESE,112,1.0,2.0,92,0.00,,,0.00,Wunderground v.1.15,2013-02-23 20:24:00,
2013-02-23 15:27:00,30.5,28.7,30.16,WSW,238,0.0,2.0,93,0.00,,,0.00,Wunderground v.1.15,2013-02-23 20:27:00,
2013-02-23 15:29:00,30.5,28.5,30.16,WSW,255,1.0,3.0,92,0.00,,,0.00,Wunderground v.1.15,2013-02-23 20:29:00,
2013-02-23 15:30:00,30.5,28.5,30.16,SW,214,0.0,1.0,92,0.00,,,0.00,Wunderground v.1.15,2013-02-23 20:30:00,
2013-02-23 15:32:00,30.5,28.5,30.15,SE,131,0.0,2.0,92,0.00,,,0.00,Wunderground v.1.15,2013-02-23 20:32:00,
2013-02-23 15:34:00,30.5,28.7,30.15,SSW,201,1.0,3.0,93,0.00,,,0.00,Wunderground v.1.15,2013-02-23 20:34:00,
2013-02-23 15:35:00,30.5,28.7,30.16,ESE,113,3.0,5.0,93,0.00,,,0.00,Wunderground v.1.15,2013-02-23 20:35:00,
2013-02-23 15:37:00,30.5,28.7,30.15,ESE,103,1.0,5.0,93,0.00,,,0.00,Wunderground v.1.15,2013-02-23 20:37:00,
2013-02-23 15:39:00,30.5,28.7,30.15,ESE,111,2.0,5.0,93,0.00,,,0.00,Wunderground v.1.15,2013-02-23 20:39:00,
2013-02-23 15:40:00,30.5,28.7,30.15,ESE,120,1.0,2.0,93,0.00,,,0.00,Wunderground v.1.15,2013-02-23 20:40:00,
2013-02-23 15:42:00,30.5,28.7,30.15,SW,214,1.0,5.0,93,0.00,,,0.00,Wunderground v.1.15,2013-02-23 20:42:00,
2013-02-23 15:45:00,30.5,28.7,30.15,East,95,3.0,5.0,93,0.00,,,0.00,Wunderground v.1.15,2013-02-23 20:45:00,
2013-02-23 15:47:00,30.4,28.6,30.15,ESE,112,0.0,5.0,93,0.00,,,0.00,Wunderground v.1.15,2013-02-23 20:47:00,
2013-02-23 15:50:00,30.4,28.6,30.15,East,82,2.0,2.0,93,0.00,,,0.00,Wunderground v.1.15,2013-02-23 20:50:00,
2013-02-23 15:52:00,30.4,28.6,30.15,East,82,2.0,6.0,93,0.00,,,0.00,Wunderground v.1.15,2013-02-23 20:52:00,
2013-02-23 15:55:00,30.3,28.5,30.15,ESE,113,2.0,6.0,93,0.00,,,0.00,Wunderground v.1.15,2013-02-23 20:55:00,
2013-02-23 15:56:00,30.3,28.5,30.15,East,93,3.0,6.0,93,0.00,,,0.00,Wunderground v.1.15,2013-02-23 20:56:00,
2013-02-23 15:57:00,30.2,28.4,30.15,East,97,3.0,6.0,93,0.00,,,0.00,Wunderground v.1.15,2013-02-23 20:57:00,
2013-02-23 15:58:00,30.3,28.5,30.15,East,101,3.0,6.0,93,0.00,,,0.00,Wunderground v.1.15,2013-02-23 20:58:00,
2013-02-23 16:00:00,30.2,28.4,30.15,ESE,116,1.0,3.0,93,0.00,,,0.00,Wunderground v.1.15,2013-02-23 21:00:00,
2013-02-23 16:02:00,30.2,28.4,30.15,ESE,105,0.0,3.0,93,0.00,,,0.00,Wunderground v.1.15,2013-02-23 21:02:00,
2013-02-23 16:06:00,30.2,28.4,30.15,ESE,103,1.0,3.0,93,0.00,,,0.00,Wunderground v.1.15,2013-02-23 21:06:00,
2013-02-23 16:07:00,30.2,28.4,30.15,ESE,122,0.0,3.0,93,0.00,,,0.00,Wunderground v.1.15,2013-02-23 21:07:00,
2013-02-23 16:08:00,30.2,28.4,30.15,ESE,123,0.0,3.0,93,0.00,,,0.00,Wunderground v.1.15,2013-02-23 21:08:00,
2013-02-23 16:11:00,30.2,28.7,30.15,ESE,118,0.0,1.0,94,0.00,,,0.00,Wunderground v.1.15,2013-02-23 21:11:00,
2013-02-23 16:12:00,30.2,28.7,30.15,WSW,256,0.0,1.0,94,0.00,,,0.00,Wunderground v.1.15,2013-02-23 21:12:00,
2013-02-23 16:13:00,30.2,28.7,30.15,WSW,256,0.0,1.0,94,0.00,,,0.00,Wunderground v.1.15,2013-02-23 21:13:00,
2013-02-23 16:16:00,30.2,28.7,30.16,ESE,123,0.0,1.0,94,0.00,,,0.00,Wunderground v.1.15,2013-02-23 21:16:00,
2013-02-23 16:17:00,30.2,28.7,30.16,ESE,108,0.0,1.0,94,0.00,,,0.00,Wunderground v.1.15,2013-02-23 21:17:00,
2013-02-23 16:18:00,30.2,28.7,30.15,ESE,108,0.0,1.0,94,0.00,,,0.00,Wunderground v.1.15,2013-02-23 21:18:00,
2013-02-23 16:21:00,30.2,28.7,30.15,ESE,118,2.0,2.0,94,0.00,,,0.00,Wunderground v.1.15,2013-02-23 21:21:00,
2013-02-23 16:23:00,30.2,28.7,30.15,ESE,108,1.0,3.0,94,0.00,,,0.00,Wunderground v.1.15,2013-02-23 21:23:00,
2013-02-23 16:26:00,30.2,28.7,30.15,ESE,118,0.0,3.0,94,0.00,,,0.00,Wunderground v.1.15,2013-02-23 21:26:00,
2013-02-23 16:28:00,30.2,28.7,30.15,ESE,119,0.0,3.0,94,0.00,,,0.00,Wunderground v.1.15,2013-02-23 21:28:00,
2013-02-23 16:31:00,30.2,28.7,30.15,ESE,113,1.0,1.0,94,0.00,,,0.00,Wunderground v.1.15,2013-02-23 21:31:00,
2013-02-23 16:33:00,30.2,28.7,30.15,SW,223,1.0,1.0,94,0.00,,,0.00,Wunderground v.1.15,2013-02-23 21:33:00,
2013-02-23 16:36:00,30.3,28.8,30.15,ESE,117,1.0,2.0,94,0.00,,,0.00,Wunderground v.1.15,2013-02-23 21:36:00,
2013-02-23 16:38:00,30.3,28.8,30.15,ESE,117,0.0,2.0,94,0.00,,,0.00,Wunderground v.1.15,2013-02-23 21:38:00,
2013-02-23 16:42:00,30.2,28.7,30.15,ESE,103,2.0,3.0,94,0.00,,,0.00,Wunderground v.1.15,2013-02-23 21:42:00,
2013-02-23 16:43:00,30.2,28.7,30.15,East,94,3.0,4.0,94,0.00,,,0.00,Wunderground v.1.15,2013-02-23 21:43:00,
2013-02-23 16:47:00,30.2,28.7,30.15,ESE,112,1.0,5.0,94,0.00,,,0.00,Wunderground v.1.15,2013-02-23 21:47:00,
2013-02-23 16:48:00,30.2,28.7,30.15,ESE,119,0.0,5.0,94,0.00,,,0.00,Wunderground v.1.15,2013-02-23 21:48:00,
2013-02-23 16:52:00,30.2,28.7,30.15,ESE,119,0.0,1.0,94,0.00,,,0.00,Wunderground v.1.15,2013-02-23 21:52:00,
2013-02-23 16:53:00,30.2,28.7,30.14,ESE,119,0.0,1.0,94,0.00,,,0.00,Wunderground v.1.15,2013-02-23 21:53:00,
2013-02-23 16:57:00,30.2,28.7,30.14,ESE,115,2.0,2.0,94,0.00,,,0.00,Wunderground v.1.15,2013-02-23 21:57:00,
2013-02-23 16:58:00,30.2,28.7,30.14,ESE,110,0.0,2.0,94,0.00,,,0.00,Wunderground v.1.15,2013-02-23 21:58:00,
2013-02-23 16:59:00,30.2,28.7,30.14,ESE,110,0.0,2.0,94,0.00,,,0.00,Wunderground v.1.15,2013-02-23 21:59:00,
2013-02-23 17:02:00,30.1,28.6,30.14,SE,126,0.0,2.0,94,0.00,,,0.00,Wunderground v.1.15,2013-02-23 22:02:00,
2013-02-23 17:03:00,30.1,28.6,30.14,SSE,166,0.0,2.0,94,0.00,,,0.00,Wunderground v.1.15,2013-02-23 22:03:00,
2013-02-23 17:04:00,30.1,28.6,30.14,SSW,200,1.0,2.0,94,0.00,,,0.00,Wunderground v.1.15,2013-02-23 22:04:00,
2013-02-23 17:07:00,30.1,28.6,30.14,SW,217,0.0,2.0,94,0.00,,,0.00,Wunderground v.1.15,2013-02-23 22:07:00,
2013-02-23 17:08:00,30.1,28.6,30.14,East,101,2.0,3.0,94,0.00,,,0.00,Wunderground v.1.15,2013-02-23 22:08:00,
2013-02-23 17:09:00,30.1,28.6,30.14,ESE,108,1.0,3.0,94,0.00,,,0.00,Wunderground v.1.15,2013-02-23 22:09:00,
2013-02-23 17:12:00,30.1,28.6,30.14,SW,221,1.0,2.0,94,0.00,,,0.00,Wunderground v.1.15,2013-02-23 22:12:00,
2013-02-23 17:13:00,30.1,28.6,30.14,South,174,0.0,2.0,94,0.00,,,0.00,Wunderground v.1.15,2013-02-23 22:13:00,
2013-02-23 17:14:00,30.1,28.6,30.14,South,174,0.0,2.0,94,0.00,,,0.00,Wunderground v.1.15,2013-02-23 22:14:00,
2013-02-23 17:17:00,30.1,28.8,30.14,ESE,115,2.0,3.0,95,0.00,,,0.00,Wunderground v.1.15,2013-02-23 22:17:00,
2013-02-23 17:19:00,30.1,28.8,30.14,ESE,116,0.0,3.0,95,0.00,,,0.00,Wunderground v.1.15,2013-02-23 22:19:00,
2013-02-23 17:22:00,30.1,28.8,30.14,West,260,3.0,4.0,95,0.00,,,0.00,Wunderground v.1.15,2013-02-23 22:22:00,
2013-02-23 17:24:00,30.0,28.7,30.14,SSW,207,1.0,5.0,95,0.00,,,0.00,Wunderground v.1.15,2013-02-23 22:24:00,
2013-02-23 17:28:00,30.0,28.7,30.13,ESE,108,2.0,7.0,95,0.00,,,0.00,Wunderground v.1.15,2013-02-23 22:28:00,
2013-02-23 17:29:00,30.0,28.7,30.13,ESE,122,1.0,7.0,95,0.00,,,0.00,Wunderground v.1.15,2013-02-23 22:29:00,
2013-02-23 17:30:00,30.0,28.7,30.13,ESE,115,1.0,2.0,95,0.00,,,0.00,Wunderground v.1.15,2013-02-23 22:30:00,
2013-02-23 17:33:00,30.0,28.7,30.13,ESE,115,0.0,2.0,95,0.00,,,0.00,Wunderground v.1.15,2013-02-23 22:33:00,
2013-02-23 17:34:00,30.0,28.7,30.13,SE,146,0.0,2.0,95,0.00,,,0.00,Wunderground v.1.15,2013-02-23 22:34:00,
2013-02-23 17:38:00,30.0,28.7,30.13,SE,146,0.0,4.0,95,0.00,,,0.00,Wunderground v.1.15,2013-02-23 22:38:00,
2013-02-23 17:39:00,30.0,28.7,30.13,SE,146,0.0,4.0,95,0.00,,,0.00,Wunderground v.1.15,2013-02-23 22:39:00,
2013-02-23 17:43:00,29.9,28.6,30.13,ESE,106,2.0,2.0,95,0.00,,,0.00,Wunderground v.1.15,2013-02-23 22:43:00,
2013-02-23 17:44:00,30.0,28.7,30.13,SE,124,0.0,4.0,95,0.00,,,0.00,Wunderground v.1.15,2013-02-23 22:44:00,
2013-02-23 17:45:00,29.9,28.6,30.13,West,276,1.0,4.0,95,0.00,,,0.00,Wunderground v.1.15,2013-02-23 22:45:00,
2013-02-23 17:48:00,30.0,28.7,30.13,SW,221,0.0,4.0,95,0.00,,,0.00,Wunderground v.1.15,2013-02-23 22:48:00,
2013-02-23 17:49:00,29.9,28.6,30.13,ESE,112,0.0,4.0,95,0.00,,,0.00,Wunderground v.1.15,2013-02-23 22:49:00,
2013-02-23 17:50:00,29.9,28.6,30.13,West,259,1.0,1.0,95,0.00,,,0.00,Wunderground v.1.15,2013-02-23 22:50:00,
2013-02-23 17:53:00,29.9,28.6,30.13,ESE,106,0.0,3.0,95,0.00,,,0.00,Wunderground v.1.15,2013-02-23 22:53:00,
2013-02-23 17:54:00,29.9,28.6,30.13,WSW,255,0.0,3.0,95,0.00,,,0.00,Wunderground v.1.15,2013-02-23 22:54:00,
2013-02-23 17:55:00,29.9,28.6,30.13,ESE,111,2.0,3.0,95,0.00,,,0.00,Wunderground v.1.15,2013-02-23 22:55:00,
2013-02-23 17:58:00,29.9,28.6,30.12,ESE,116,1.0,4.0,95,0.00,,,0.00,Wunderground v.1.15,2013-02-23 22:58:00,
2013-02-23 17:59:00,29.9,28.6,30.13,SE,146,0.0,4.0,95,0.00,,,0.00,Wunderground v.1.15,2013-02-23 22:59:00,
2013-02-23 18:00:00,29.9,28.6,30.13,SE,146,0.0,1.0,95,0.00,,,0.00,Wunderground v.1.15,2013-02-23 23:00:00,
2013-02-23 18:04:00,29.9,28.6,30.13,SW,232,0.0,2.0,95,0.00,,,0.00,Wunderground v.1.15,2013-02-23 23:04:00,
2013-02-23 18:05:00,29.9,28.6,30.13,East,98,1.0,2.0,95,0.00,,,0.00,Wunderground v.1.15,2013-02-23 23:05:00,
2013-02-23 18:09:00,29.9,28.6,30.13,East,94,0.0,5.0,95,0.00,,,0.00,Wunderground v.1.15,2013-02-23 23:09:00,
2013-02-23 18:10:00,29.9,28.6,30.13,East,95,0.0,1.0,95,0.00,,,0.00,Wunderground v.1.15,2013-02-23 23:10:00,
2013-02-23 18:14:00,30.0,28.7,30.13,ESE,105,0.0,2.0,95,0.00,,,0.00,Wunderground v.1.15,2013-02-23 23:14:00,
2013-02-23 18:15:00,29.9,28.6,30.13,ESE,105,0.0,2.0,95,0.00,,,0.00,Wunderground v.1.15,2013-02-23 23:15:00,
2013-02-23 18:19:00,29.9,28.6,30.13,ESE,116,0.0,3.0,95,0.00,,,0.00,Wunderground v.1.15,2013-02-23 23:19:00,
2013-02-23 18:20:00,29.9,28.6,30.12,ESE,116,0.0,0.0,95,0.00,,,0.00,Wunderground v.1.15,2013-02-23 23:20:00,
2013-02-23 18:24:00,29.9,28.6,30.12,ESE,116,1.0,2.0,95,0.00,,,0.00,Wunderground v.1.15,2013-02-23 23:24:00,
2013-02-23 18:25:00,29.9,28.6,30.12,ESE,115,1.0,2.0,95,0.00,,,0.00,Wunderground v.1.15,2013-02-23 23:25:00,
2013-02-23 18:30:00,29.9,28.6,30.12,East,99,0.0,1.0,95,0.00,,,0.00,Wunderground v.1.15,2013-02-23 23:30:00,
2013-02-23 18:31:00,29.9,28.6,30.12,East,98,0.0,1.0,95,0.00,,,0.00,Wunderground v.1.15,2013-02-23 23:31:00,
2013-02-23 18:35:00,29.9,28.6,30.12,East,99,2.0,2.0,95,0.00,,,0.00,Wunderground v.1.15,2013-02-23 23:35:00,
2013-02-23 18:36:00,29.9,28.6,30.12,ESE,112,5.0,5.0,95,0.00,,,0.00,Wunderground v.1.15,2013-02-23 23:36:00,
2013-02-23 18:40:00,29.9,28.6,30.12,SSW,207,0.0,1.0,95,0.00,,,0.00,Wunderground v.1.15,2013-02-23 23:40:00,
2013-02-23 18:41:00,29.9,28.6,30.12,SSW,207,0.0,1.0,95,0.00,,,0.00,Wunderground v.1.15,2013-02-23 23:41:00,
2013-02-23 18:45:00,29.9,28.6,30.12,SE,134,0.0,1.0,95,0.00,,,0.00,Wunderground v.1.15,2013-02-23 23:45:00,
2013-02-23 18:46:00,29.9,28.6,30.12,SE,134,0.0,1.0,95,0.00,,,0.00,Wunderground v.1.15,2013-02-23 23:46:00,
2013-02-23 18:50:00,29.9,28.6,30.11,SE,134,0.0,0.0,95,0.00,,,0.00,Wunderground v.1.15,2013-02-23 23:50:00,
2013-02-23 18:51:00,29.9,28.6,30.11,SE,134,0.0,0.0,95,0.00,,,0.00,Wunderground v.1.15,2013-02-23 23:51:00,
2013-02-23 18:55:00,29.9,28.6,30.11,ESE,108,0.0,2.0,95,0.00,,,0.00,Wunderground v.1.15,2013-02-23 23:55:00,
2013-02-23 18:56:00,29.9,28.6,30.11,ESE,108,0.0,2.0,95,0.00,,,0.00,Wunderground v.1.15,2013-02-23 23:56:00,
2013-02-23 19:01:00,29.9,28.6,30.11,ESE,119,1.0,1.0,95,0.00,,,0.00,Wunderground v.1.15,2013-02-24 00:01:00,
2013-02-23 19:02:00,29.9,28.6,30.11,ESE,111,1.0,1.0,95,0.00,,,0.00,Wunderground v.1.15,2013-02-24 00:02:00,
2013-02-23 19:06:00,29.9,28.6,30.11,ESE,106,0.0,1.0,95,0.00,,,0.00,Wunderground v.1.15,2013-02-24 00:06:00,
2013-02-23 19:07:00,29.9,28.6,30.11,ESE,105,0.0,1.0,95,0.00,,,0.00,Wunderground v.1.15,2013-02-24 00:07:00,
2013-02-23 19:11:00,29.9,28.6,30.11,ESE,120,0.0,1.0,95,0.00,,,0.00,Wunderground v.1.15,2013-02-24 00:11:00,
2013-02-23 19:12:00,29.9,28.6,30.11,ESE,120,0.0,1.0,95,0.00,,,0.00,Wunderground v.1.15,2013-02-24 00:12:00,
2013-02-23 19:17:00,29.9,28.6,30.11,ESE,108,1.0,2.0,95,0.00,,,0.00,Wunderground v.1.15,2013-02-24 00:17:00,
2013-02-23 19:18:00,29.9,28.6,30.11,East,98,1.0,3.0,95,0.00,,,0.00,Wunderground v.1.15,2013-02-24 00:18:00,
2013-02-23 19:22:00,29.9,28.6,30.11,ESE,114,0.0,2.0,95,0.00,,,0.00,Wunderground v.1.15,2013-02-24 00:22:00,
2013-02-23 19:23:00,29.9,28.6,30.10,ESE,114,0.0,2.0,95,0.00,,,0.00,Wunderground v.1.15,2013-02-24 00:23:00,
2013-02-23 19:27:00,29.9,28.6,30.11,East,101,1.0,4.0,95,0.00,,,0.00,Wunderground v.1.15,2013-02-24 00:27:00,
2013-02-23 19:28:00,29.9,28.6,30.10,East,85,4.0,5.0,95,0.00,,,0.00,Wunderground v.1.15,2013-02-24 00:28:00,
2013-02-23 19:32:00,29.9,28.9,30.10,ESE,105,2.0,2.0,96,0.00,,,0.00,Wunderground v.1.15,2013-02-24 00:32:00,
2013-02-23 19:33:00,29.9,28.9,30.10,ESE,103,3.0,3.0,96,0.00,,,0.00,Wunderground v.1.15,2013-02-24 00:33:00,
2013-02-23 19:37:00,29.9,28.9,30.10,East,91,1.0,3.0,96,0.00,,,0.00,Wunderground v.1.15,2013-02-24 00:37:00,
2013-02-23 19:38:00,29.9,28.9,30.10,East,93,0.0,3.0,96,0.00,,,0.00,Wunderground v.1.15,2013-02-24 00:38:00,
2013-02-23 19:42:00,29.9,28.9,30.10,ESE,112,2.0,2.0,96,0.00,,,0.00,Wunderground v.1.15,2013-02-24 00:42:00,
2013-02-23 19:43:00,29.9,28.9,30.10,East,97,2.0,2.0,96,0.00,,,0.00,Wunderground v.1.15,2013-02-24 00:43:00,
2013-02-23 19:47:00,29.9,28.9,30.10,ESE,121,0.0,2.0,96,0.00,,,0.00,Wunderground v.1.15,2013-02-24 00:47:00,
2013-02-23 19:48:00,30.0,29.0,30.10,ESE,111,1.0,2.0,96,0.00,,,0.00,Wunderground v.1.15,2013-02-24 00:48:00,
2013-02-23 19:49:00,29.9,28.9,30.10,ESE,112,0.0,2.0,96,0.00,,,0.00,Wunderground v.1.15,2013-02-24 00:49:00,
2013-02-23 19:52:00,29.9,28.9,30.10,ESE,108,1.0,1.0,96,0.00,,,0.00,Wunderground v.1.15,2013-02-24 00:52:00,
2013-02-23 19:53:00,29.9,28.9,30.10,ESE,110,1.0,1.0,96,0.00,,,0.00,Wunderground v.1.15,2013-02-24 00:53:00,
2013-02-23 19:54:00,29.9,28.9,30.09,ESE,108,1.0,1.0,96,0.00,,,0.00,Wunderground v.1.15,2013-02-24 00:54:00,
2013-02-23 19:57:00,29.9,28.9,30.10,ESE,103,2.0,3.0,96,0.00,,,0.00,Wunderground v.1.15,2013-02-24 00:57:00,
2013-02-23 19:58:00,29.9,28.9,30.10,ESE,112,3.0,3.0,96,0.00,,,0.00,Wunderground v.1.15,2013-02-24 00:58:00,
2013-02-23 19:59:00,29.9,28.9,30.10,ESE,110,2.0,3.0,96,0.00,,,0.00,Wunderground v.1.15,2013-02-24 00:59:00,
2013-02-23 20:02:00,29.9,28.9,30.10,ESE,106,0.0,1.0,96,0.00,,,0.00,Wunderground v.1.15,2013-02-24 01:02:00,
2013-02-23 20:03:00,29.9,28.9,30.10,ESE,105,0.0,1.0,96,0.00,,,0.00,Wunderground v.1.15,2013-02-24 01:03:00,
2013-02-23 20:04:00,29.9,28.9,30.10,ESE,105,0.0,1.0,96,0.00,,,0.00,Wunderground v.1.15,2013-02-24 01:04:00,
2013-02-23 20:07:00,29.9,28.9,30.09,ESE,120,3.0,3.0,96,0.00,,,0.00,Wunderground v.1.15,2013-02-24 01:07:00,
2013-02-23 20:08:00,29.9,28.9,30.09,SE,135,2.0,3.0,96,0.00,,,0.00,Wunderground v.1.15,2013-02-24 01:08:00,
2013-02-23 20:09:00,30.0,29.0,30.09,ESE,115,1.0,3.0,96,0.00,,,0.00,Wunderground v.1.15,2013-02-24 01:09:00,
2013-02-23 20:12:00,29.9,28.9,30.09,ESE,120,0.0,2.0,96,0.00,,,0.00,Wunderground v.1.15,2013-02-24 01:12:00,
2013-02-23 20:13:00,29.9,28.9,30.09,ESE,120,0.0,2.0,96,0.00,,,0.00,Wunderground v.1.15,2013-02-24 01:13:00,
2013-02-23 20:14:00,29.9,28.9,30.09,ESE,108,1.0,2.0,96,0.00,,,0.00,Wunderground v.1.15,2013-02-24 01:14:00,
2013-02-23 20:17:00,29.9,28.9,30.09,ESE,108,1.0,3.0,96,0.00,,,0.00,Wunderground v.1.15,2013-02-24 01:17:00,
2013-02-23 20:18:00,29.9,28.9,30.09,ESE,116,1.0,3.0,96,0.00,,,0.00,Wunderground v.1.15,2013-02-24 01:18:00,
2013-02-23 20:19:00,29.9,28.9,30.09,ESE,119,0.0,3.0,96,0.00,,,0.00,Wunderground v.1.15,2013-02-24 01:19:00,
2013-02-23 20:20:00,29.9,28.9,30.09,ESE,119,0.0,1.0,96,0.00,,,0.00,Wunderground v.1.15,2013-02-24 01:20:00,
2013-02-23 20:22:00,29.9,28.9,30.09,ESE,119,1.0,2.0,96,0.00,,,0.00,Wunderground v.1.15,2013-02-24 01:22:00,
2013-02-23 20:23:00,29.9,28.9,30.09,ESE,112,2.0,2.0,96,0.00,,,0.00,Wunderground v.1.15,2013-02-24 01:23:00,
2013-02-23 20:24:00,29.9,28.9,30.09,East,92,1.0,2.0,96,0.00,,,0.00,Wunderground v.1.15,2013-02-24 01:24:00,
2013-02-23 20:25:00,29.9,28.9,30.09,ESE,123,1.0,2.0,96,0.00,,,0.00,Wunderground v.1.15,2013-02-24 01:25:00,
2013-02-23 20:27:00,29.9,28.9,30.09,SE,144,0.0,2.0,96,0.00,,,0.00,Wunderground v.1.15,2013-02-24 01:27:00,
2013-02-23 20:28:00,29.9,28.9,30.09,SE,139,0.0,2.0,96,0.00,,,0.00,Wunderground v.1.15,2013-02-24 01:28:00,
2013-02-23 20:29:00,29.9,28.9,30.09,ESE,112,3.0,4.0,96,0.00,,,0.00,Wunderground v.1.15,2013-02-24 01:29:00,
2013-02-23 20:30:00,29.9,28.9,30.09,ESE,105,2.0,2.0,96,0.00,,,0.00,Wunderground v.1.15,2013-02-24 01:30:00,
2013-02-23 20:32:00,29.9,28.9,30.08,East,82,2.0,6.0,96,0.00,,,0.00,Wunderground v.1.15,2013-02-24 01:32:00,
2013-02-23 20:33:00,29.9,28.9,30.08,SE,126,1.0,6.0,96,0.00,,,0.00,Wunderground v.1.15,2013-02-24 01:33:00,
2013-02-23 20:34:00,29.9,28.9,30.08,SSE,153,0.0,6.0,96,0.00,,,0.00,Wunderground v.1.15,2013-02-24 01:34:00,
2013-02-23 20:35:00,29.9,28.9,30.08,ESE,120,1.0,6.0,96,0.00,,,0.00,Wunderground v.1.15,2013-02-24 01:35:00,
2013-02-23 20:37:00,29.9,28.9,30.08,ESE,116,2.0,6.0,96,0.00,,,0.00,Wunderground v.1.15,2013-02-24 01:37:00,
2013-02-23 20:39:00,29.9,28.9,30.08,East,92,3.0,6.0,96,0.00,,,0.00,Wunderground v.1.15,2013-02-24 01:39:00,
2013-02-23 20:40:00,29.9,28.9,30.08,SSW,198,4.0,4.0,96,0.00,,,0.00,Wunderground v.1.15,2013-02-24 01:40:00,
2013-02-23 20:42:00,29.9,28.9,30.08,ESE,119,3.0,4.0,96,0.00,,,0.00,Wunderground v.1.15,2013-02-24 01:42:00,
2013-02-23 20:44:00,29.9,28.9,30.08,East,91,3.0,4.0,96,0.00,,,0.00,Wunderground v.1.15,2013-02-24 01:44:00,
2013-02-23 20:45:00,29.9,28.9,30.08,East,93,3.0,4.0,96,0.00,,,0.00,Wunderground v.1.15,2013-02-24 01:45:00,
2013-02-23 20:47:00,29.9,28.9,30.08,ESE,103,1.0,6.0,96,0.00,,,0.00,Wunderground v.1.15,2013-02-24 01:47:00,
2013-02-23 20:49:00,29.9,28.9,30.08,ESE,107,3.0,6.0,96,0.00,,,0.00,Wunderground v.1.15,2013-02-24 01:49:00,
2013-02-23 20:50:00,29.9,28.9,30.08,ESE,119,0.0,2.0,96,0.00,,,0.00,Wunderground v.1.15,2013-02-24 01:50:00,
2013-02-23 20:52:00,29.9,28.9,30.08,SSE,161,1.0,2.0,96,0.00,,,0.00,Wunderground v.1.15,2013-02-24 01:52:00,
2013-02-23 20:54:00,29.9,28.9,30.08,ESE,108,0.0,2.0,96,0.00,,,0.00,Wunderground v.1.15,2013-02-24 01:54:00,
2013-02-23 20:55:00,29.9,28.9,30.08,ESE,112,0.0,2.0,96,0.00,,,0.00,Wunderground v.1.15,2013-02-24 01:55:00,
2013-02-23 20:57:00,29.9,28.9,30.08,ESE,119,1.0,2.0,96,0.00,,,0.00,Wunderground v.1.15,2013-02-24 01:57:00,
2013-02-23 20:59:00,29.9,28.9,30.08,ESE,112,1.0,2.0,96,0.00,,,0.00,Wunderground v.1.15,2013-02-24 01:59:00,
2013-02-23 21:02:00,29.9,28.9,30.08,East,96,4.0,5.0,96,0.00,,,0.00,Wunderground v.1.15,2013-02-24 02:02:00,
2013-02-23 21:03:00,29.8,28.8,30.08,ESE,119,2.0,5.0,96,0.00,,,0.00,Wunderground v.1.15,2013-02-24 02:03:00,
2013-02-23 21:04:00,29.9,28.9,30.08,ESE,115,2.0,5.0,96,0.00,,,0.00,Wunderground v.1.15,2013-02-24 02:04:00,
2013-02-23 21:05:00,29.9,28.9,30.08,ESE,112,1.0,5.0,96,0.00,,,0.00,Wunderground v.1.15,2013-02-24 02:05:00,
2013-02-23 21:07:00,29.9,28.9,30.08,ESE,106,0.0,5.0,96,0.00,,,0.00,Wunderground v.1.15,2013-02-24 02:07:00,
2013-02-23 21:08:00,29.8,28.8,30.08,ESE,122,0.0,5.0,96,0.00,,,0.00,Wunderground v.1.15,2013-02-24 02:08:00,
2013-02-23 21:09:00,29.9,28.9,30.08,ESE,123,0.0,5.0,96,0.00,,,0.00,Wunderground v.1.15,2013-02-24 02:09:00,
2013-02-23 21:10:00,29.9,28.9,30.08,ESE,122,0.0,2.0,96,0.00,,,0.00,Wunderground v.1.15,2013-02-24 02:10:00,
2013-02-23 21:13:00,29.8,28.8,30.08,East,95,0.0,2.0,96,0.00,,,0.00,Wunderground v.1.15,2013-02-24 02:13:00,
2013-02-23 21:14:00,29.8,28.8,30.09,East,94,0.0,2.0,96,0.00,,,0.00,Wunderground v.1.15,2013-02-24 02:14:00,
2013-02-23 21:15:00,29.8,28.8,30.09,East,95,0.0,2.0,96,0.00,,,0.00,Wunderground v.1.15,2013-02-24 02:15:00,
2013-02-23 21:18:00,29.8,28.8,30.09,East,98,0.0,2.0,96,0.00,,,0.00,Wunderground v.1.15,2013-02-24 02:18:00,
2013-02-23 21:19:00,29.8,28.8,30.09,East,99,0.0,2.0,96,0.00,,,0.00,Wunderground v.1.15,2013-02-24 02:19:00,
2013-02-23 21:20:00,29.8,28.8,30.09,East,99,0.0,0.0,96,0.00,,,0.00,Wunderground v.1.15,2013-02-24 02:20:00,
2013-02-23 21:23:00,29.8,28.8,30.08,East,99,1.0,2.0,96,0.00,,,0.00,Wunderground v.1.15,2013-02-24 02:23:00,
2013-02-23 21:24:00,29.8,28.8,30.08,East,101,2.0,3.0,96,0.00,,,0.00,Wunderground v.1.15,2013-02-24 02:24:00,
2013-02-23 21:25:00,29.8,28.8,30.08,ESE,116,2.0,3.0,96,0.00,,,0.00,Wunderground v.1.15,2013-02-24 02:25:00,
2013-02-23 21:28:00,29.8,28.8,30.08,ESE,104,2.0,3.0,96,0.00,,,0.00,Wunderground v.1.15,2013-02-24 02:28:00,
2013-02-23 21:29:00,29.8,28.8,30.08,East,98,4.0,4.0,96,0.00,,,0.00,Wunderground v.1.15,2013-02-24 02:29:00,
2013-02-23 21:30:00,29.8,28.8,30.08,ENE,67,2.0,3.0,96,0.00,,,0.00,Wunderground v.1.15,2013-02-24 02:30:00,
2013-02-23 21:31:00,29.8,28.8,30.08,ESE,117,0.0,3.0,96,0.00,,,0.00,Wunderground v.1.15,2013-02-24 02:31:00,
2013-02-23 21:33:00,29.8,28.8,30.08,ESE,117,1.0,3.0,96,0.00,,,0.00,Wunderground v.1.15,2013-02-24 02:33:00,
2013-02-23 21:34:00,29.8,28.8,30.08,ESE,103,2.0,3.0,96,0.00,,,0.00,Wunderground v.1.15,2013-02-24 02:34:00,
2013-02-23 21:35:00,29.8,28.8,30.08,East,100,1.0,3.0,96,0.00,,,0.00,Wunderground v.1.15,2013-02-24 02:35:00,
2013-02-23 21:36:00,29.8,28.8,30.08,ESE,119,3.0,3.0,96,0.00,,,0.00,Wunderground v.1.15,2013-02-24 02:36:00,
2013-02-23 21:39:00,29.8,28.8,30.08,ESE,117,2.0,3.0,96,0.00,,,0.00,Wunderground v.1.15,2013-02-24 02:39:00,
2013-02-23 21:40:00,29.8,28.8,30.08,ESE,115,3.0,3.0,96,0.00,,,0.00,Wunderground v.1.15,2013-02-24 02:40:00,
2013-02-23 21:41:00,29.8,28.8,30.08,ESE,103,3.0,4.0,96,0.00,,,0.00,Wunderground v.1.15,2013-02-24 02:41:00,
2013-02-23 21:44:00,29.7,28.7,30.07,ESE,114,0.0,4.0,96,0.00,,,0.00,Wunderground v.1.15,2013-02-24 02:44:00,
2013-02-23 21:45:00,29.8,28.8,30.07,ESE,106,0.0,4.0,96,0.00,,,0.00,Wunderground v.1.15,2013-02-24 02:45:00,
2013-02-23 21:46:00,29.7,28.7,30.07,ESE,105,0.0,4.0,96,0.00,,,0.00,Wunderground v.1.15,2013-02-24 02:46:00,
2013-02-23 21:49:00,29.7,28.7,30.07,ESE,116,1.0,4.0,96,0.00,,,0.00,Wunderground v.1.15,2013-02-24 02:49:00,
2013-02-23 21:50:00,29.7,28.7,30.07,ESE,119,3.0,3.0,96,0.00,,,0.00,Wunderground v.1.15,2013-02-24 02:50:00,
2013-02-23 21:51:00,29.7,28.7,30.07,East,86,1.0,3.0,96,0.00,,,0.00,Wunderground v.1.15,2013-02-24 02:51:00,
2013-02-23 21:54:00,29.7,28.7,30.06,ESE,106,0.0,3.0,96,0.00,,,0.00,Wunderground v.1.15,2013-02-24 02:54:00,
2013-02-23 21:55:00,29.7,28.7,30.07,ESE,108,0.0,3.0,96,0.00,,,0.00,Wunderground v.1.15,2013-02-24 02:55:00,
2013-02-23 21:56:00,29.7,28.7,30.07,ESE,106,0.0,3.0,96,0.00,,,0.00,Wunderground v.1.15,2013-02-24 02:56:00,
2013-02-23 21:59:00,29.7,28.7,30.06,ESE,117,1.0,3.0,96,0.00,,,0.00,Wunderground v.1.15,2013-02-24 02:59:00,
2013-02-23 22:02:00,29.7,28.7,30.06,ESE,112,0.0,2.0,96,0.00,,,0.00,Wunderground v.1.15,2013-02-24 03:02:00,
2013-02-23 22:04:00,29.7,28.7,30.06,ESE,112,0.0,2.0,96,0.00,,,0.00,Wunderground v.1.15,2013-02-24 03:04:00,
2013-02-23 22:07:00,29.7,28.7,30.06,SSE,162,0.0,2.0,96,0.00,,,0.00,Wunderground v.1.15,2013-02-24 03:07:00,
2013-02-23 22:09:00,29.6,28.6,30.06,ESE,105,0.0,2.0,96,0.00,,,0.00,Wunderground v.1.15,2013-02-24 03:09:00,
2013-02-23 22:12:00,29.7,28.7,30.06,East,85,1.0,2.0,96,0.00,,,0.00,Wunderground v.1.15,2013-02-24 03:12:00,
2013-02-23 22:14:00,29.7,28.7,30.06,SE,125,0.0,2.0,96,0.00,,,0.00,Wunderground v.1.15,2013-02-24 03:14:00,
2013-02-23 22:17:00,29.7,28.7,30.05,ESE,108,2.0,2.0,96,0.00,,,0.00,Wunderground v.1.15,2013-02-24 03:17:00,
2013-02-23 22:19:00,29.7,28.7,30.05,ESE,111,0.0,2.0,96,0.00,,,0.00,Wunderground v.1.15,2013-02-24 03:19:00,
2013-02-23 22:20:00,29.7,28.7,30.05,ESE,112,0.0,1.0,96,0.00,,,0.00,Wunderground v.1.15,2013-02-24 03:20:00,
2013-02-23 22:22:00,29.7,28.7,30.05,ESE,118,0.0,1.0,96,0.00,,,0.00,Wunderground v.1.15,2013-02-24 03:22:00,
2013-02-23 22:25:00,29.7,28.7,30.05,ESE,119,0.0,1.0,96,0.00,,,0.00,Wunderground v.1.15,2013-02-24 03:25:00,
2013-02-23 22:27:00,29.7,28.7,30.05,ESE,103,2.0,2.0,96,0.00,,,0.00,Wunderground v.1.15,2013-02-24 03:27:00,
2013-02-23 22:30:00,29.7,28.7,30.05,East,96,0.0,1.0,96,0.00,,,0.00,Wunderground v.1.15,2013-02-24 03:30:00,
2013-02-23 22:32:00,29.7,28.7,30.05,ESE,108,0.0,2.0,96,0.00,,,0.00,Wunderground v.1.15,2013-02-24 03:32:00,
2013-02-23 22:35:00,29.6,28.6,30.04,ESE,108,1.0,2.0,96,0.00,,,0.00,Wunderground v.1.15,2013-02-24 03:35:00,
2013-02-23 22:37:00,29.7,28.7,30.04,SE,143,0.0,2.0,96,0.00,,,0.00,Wunderground v.1.15,2013-02-24 03:37:00,
2013-02-23 22:40:00,29.6,28.6,30.04,ESE,110,3.0,3.0,96,0.00,,,0.00,Wunderground v.1.15,2013-02-24 03:40:00,
2013-02-23 22:42:00,29.7,28.7,30.04,East,98,2.0,3.0,96,0.00,,,0.00,Wunderground v.1.15,2013-02-24 03:42:00,
2013-02-23 22:45:00,29.7,28.7,30.04,SE,130,1.0,3.0,96,0.00,,,0.00,Wunderground v.1.15,2013-02-24 03:45:00,
2013-02-23 22:47:00,29.6,28.6,30.04,ESE,105,1.0,3.0,96,0.00,,,0.00,Wunderground v.1.15,2013-02-24 03:47:00,
2013-02-23 22:50:00,29.7,28.7,30.04,ESE,119,1.0,1.0,96,0.00,,,0.00,Wunderground v.1.15,2013-02-24 03:50:00,
2013-02-23 22:52:00,29.6,28.6,30.04,ESE,103,1.0,1.0,96,0.00,,,0.00,Wunderground v.1.15,2013-02-24 03:52:00,
2013-02-23 22:55:00,29.7,28.7,30.04,East,85,1.0,2.0,96,0.00,,,0.00,Wunderground v.1.15,2013-02-24 03:55:00,
2013-02-23 22:57:00,29.6,28.6,30.04,ESE,105,1.0,2.0,96,0.00,,,0.00,Wunderground v.1.15,2013-02-24 03:57:00,
2013-02-23 22:58:00,29.6,28.6,30.04,ESE,103,1.0,2.0,96,0.00,,,0.00,Wunderground v.1.15,2013-02-24 03:58:00,
2013-02-23 23:00:00,29.6,28.6,30.03,East,95,2.0,2.0,96,0.00,,,0.00,Wunderground v.1.15,2013-02-24 04:00:00,
2013-02-23 23:02:00,29.6,28.6,30.03,ESE,119,3.0,3.0,96,0.00,,,0.00,Wunderground v.1.15,2013-02-24 04:02:00,
2013-02-23 23:03:00,29.6,28.6,30.03,SE,129,3.0,3.0,96,0.00,,,0.00,Wunderground v.1.15,2013-02-24 04:03:00,
2013-02-23 23:05:00,29.6,28.6,30.03,SE,127,1.0,5.0,96,0.00,,,0.00,Wunderground v.1.15,2013-02-24 04:05:00,
2013-02-23 23:07:00,29.6,28.6,30.03,East,97,1.0,5.0,96,0.00,,,0.00,Wunderground v.1.15,2013-02-24 04:07:00,
2013-02-23 23:08:00,29.6,28.6,30.03,ESE,105,1.0,5.0,96,0.00,,,0.00,Wunderground v.1.15,2013-02-24 04:08:00,
2013-02-23 23:10:00,29.6,28.6,30.03,ESE,104,3.0,3.0,96,0.00,,,0.00,Wunderground v.1.15,2013-02-24 04:10:00,
2013-02-23 23:12:00,29.6,28.6,30.03,East,100,0.0,3.0,96,0.00,,,0.00,Wunderground v.1.15,2013-02-24 04:12:00,
2013-02-23 23:13:00,29.6,28.6,30.03,ESE,110,1.0,3.0,96,0.00,,,0.00,Wunderground v.1.15,2013-02-24 04:13:00,
2013-02-23 23:15:00,29.6,28.6,30.03,East,94,1.0,3.0,96,0.00,,,0.00,Wunderground v.1.15,2013-02-24 04:15:00,
2013-02-23 23:18:00,29.6,28.6,30.03,SE,129,1.0,3.0,96,0.00,,,0.00,Wunderground v.1.15,2013-02-24 04:18:00,
2013-02-23 23:20:00,29.6,28.6,30.03,ESE,115,2.0,2.0,96,0.00,,,0.00,Wunderground v.1.15,2013-02-24 04:20:00,
2013-02-23 23:23:00,29.6,28.6,30.03,ESE,105,1.0,2.0,96,0.00,,,0.00,Wunderground v.1.15,2013-02-24 04:23:00,
2013-02-23 23:25:00,29.6,28.6,30.03,ESE,106,1.0,2.0,96,0.00,,,0.00,Wunderground v.1.15,2013-02-24 04:25:00,
2013-02-23 23:28:00,29.6,28.6,30.02,ESE,105,1.0,2.0,96,0.00,,,0.00,Wunderground v.1.15,2013-02-24 04:28:00,
2013-02-23 23:30:00,29.5,28.5,30.02,ESE,108,0.0,1.0,96,0.00,,,0.00,Wunderground v.1.15,2013-02-24 04:30:00,
2013-02-23 23:33:00,29.5,28.5,30.03,ESE,114,0.0,1.0,96,0.00,,,0.00,Wunderground v.1.15,2013-02-24 04:33:00,
2013-02-23 23:34:00,29.5,28.5,30.03,ESE,111,1.0,1.0,96,0.00,,,0.00,Wunderground v.1.15,2013-02-24 04:34:00,
2013-02-23 23:35:00,29.5,28.5,30.03,ESE,115,1.0,1.0,96,0.00,,,0.00,Wunderground v.1.15,2013-02-24 04:35:00,
2013-02-23 23:38:00,29.5,28.5,30.02,East,96,1.0,2.0,96,0.00,,,0.00,Wunderground v.1.15,2013-02-24 04:38:00,
2013-02-23 23:39:00,29.5,28.5,30.02,East,96,1.0,2.0,96,0.00,,,0.00,Wunderground v.1.15,2013-02-24 04:39:00,
2013-02-23 23:41:00,29.5,28.5,30.02,East,99,2.0,2.0,96,0.00,,,0.00,Wunderground v.1.15,2013-02-24 04:41:00,
2013-02-23 23:43:00,29.5,28.5,30.02,ENE,65,0.0,3.0,96,0.00,,,0.00,Wunderground v.1.15,2013-02-24 04:43:00,
2013-02-23 23:44:00,29.5,28.5,30.02,ESE,109,1.0,3.0,96,0.00,,,0.00,Wunderground v.1.15,2013-02-24 04:44:00,
2013-02-23 23:46:00,29.5,28.5,30.02,East,86,1.0,3.0,96,0.00,,,0.00,Wunderground v.1.15,2013-02-24 04:46:00,
2013-02-23 23:48:00,29.5,28.5,30.02,ESE,106,1.0,3.0,96,0.00,,,0.00,Wunderground v.1.15,2013-02-24 04:48:00,
2013-02-23 23:49:00,29.5,28.5,30.02,ESE,108,1.0,3.0,96,0.00,,,0.00,Wunderground v.1.15,2013-02-24 04:49:00,
2013-02-23 23:50:00,29.5,28.5,30.02,ESE,119,2.0,2.0,96,0.00,,,0.00,Wunderground v.1.15,2013-02-24 04:50:00,
2013-02-23 23:51:00,29.5,28.5,30.02,SSE,165,3.0,4.0,96,0.00,,,0.00,Wunderground v.1.15,2013-02-24 04:51:00,
2013-02-23 23:54:00,29.5,28.5,30.02,ESE,111,1.0,4.0,96,0.00,,,0.00,Wunderground v.1.15,2013-02-24 04:54:00,
2013-02-23 23:55:00,29.5,28.5,30.02,East,101,1.0,4.0,96,0.00,,,0.00,Wunderground v.1.15,2013-02-24 04:55:00,
2013-02-23 23:56:00,29.5,28.5,30.02,East,94,0.0,4.0,96,0.00,,,0.00,Wunderground v.1.15,2013-02-24 04:56:00,
2013-02-23 23:59:00,29.4,28.4,30.02,ESE,108,3.0,4.0,96,0.00,,,0.00,Wunderground v.1.15,2013-02-24 04:59:00,